ECMWFNIL_prec_pwat_093.txt.gz
Precipitable_Water
0.79 0.77 0.75 0.72 0.70 0.70 0.69 0.69 0.70 0.69 0.68 0.68 0.67 0.67 0.68 0.69 0.69 0.67 0.66 0.64 0.63 0.62 0.62 0.61 0.61 0.60 0.60 0.60 0.61 0.61 0.60 0.60 0.61 0.62 0.61 0.62 0.61 0.61 0.60 0.61 0.61 0.61
0.76 0.75 0.73 0.71 0.69 0.69 0.69 0.69 0.68 0.67 0.67 0.67 0.68 0.68 0.68 0.67 0.66 0.66 0.64 0.62 0.62 0.61 0.61 0.60 0.59 0.59 0.58 0.58 0.59 0.58 0.58 0.58 0.57 0.60 0.59 0.59 0.59 0.60 0.60 0.61 0.61 0.63
0.74 0.72 0.70 0.68 0.67 0.67 0.68 0.69 0.68 0.68 0.67 0.67 0.68 0.68 0.67 0.67 0.65 0.65 0.64 0.62 0.60 0.59 0.58 0.58 0.57 0.56 0.56 0.56 0.56 0.56 0.55 0.55 0.54 0.56 0.56 0.56 0.58 0.58 0.59 0.60 0.60 0.61
0.73 0.71 0.70 0.69 0.68 0.67 0.68 0.68 0.68 0.68 0.68 0.66 0.66 0.66 0.66 0.66 0.64 0.62 0.61 0.60 0.57 0.56 0.56 0.55 0.54 0.54 0.54 0.53 0.53 0.52 0.52 0.51 0.52 0.52 0.51 0.52 0.54 0.54 0.55 0.57 0.57 0.58
0.72 0.71 0.71 0.70 0.69 0.69 0.68 0.67 0.66 0.67 0.66 0.65 0.65 0.65 0.63 0.62 0.60 0.59 0.58 0.57 0.55 0.53 0.53 0.51 0.51 0.50 0.50 0.49 0.48 0.46 0.46 0.45 0.46 0.45 0.44 0.44 0.47 0.47 0.48 0.50 0.50 0.50
0.73 0.72 0.71 0.69 0.69 0.67 0.66 0.65 0.64 0.64 0.63 0.62 0.62 0.62 0.60 0.59 0.57 0.56 0.54 0.53 0.51 0.50 0.48 0.47 0.45 0.44 0.43 0.42 0.41 0.39 0.39 0.38 0.38 0.38 0.37 0.37 0.38 0.41 0.42 0.43 0.44 0.43
0.71 0.70 0.68 0.68 0.67 0.66 0.64 0.63 0.62 0.62 0.61 0.60 0.60 0.58 0.57 0.54 0.52 0.51 0.49 0.47 0.45 0.42 0.40 0.39 0.38 0.36 0.37 0.36 0.35 0.35 0.35 0.35 0.35 0.35 0.34 0.34 0.35 0.36 0.38 0.40 0.40 0.40
0.70 0.69 0.67 0.66 0.64 0.63 0.61 0.60 0.59 0.59 0.58 0.57 0.54 0.54 0.52 0.49 0.46 0.45 0.43 0.41 0.38 0.36 0.35 0.34 0.34 0.33 0.34 0.33 0.32 0.32 0.32 0.33 0.32 0.32 0.31 0.31 0.32 0.31 0.33 0.35 0.36 0.36
0.68 0.66 0.65 0.63 0.61 0.60 0.59 0.58 0.57 0.55 0.54 0.51 0.50 0.48 0.47 0.45 0.42 0.40 0.39 0.37 0.35 0.34 0.33 0.32 0.32 0.31 0.32 0.31 0.30 0.30 0.29 0.30 0.31 0.30 0.29 0.28 0.28 0.28 0.29 0.31 0.31 0.32
0.65 0.64 0.62 0.60 0.58 0.58 0.56 0.55 0.55 0.53 0.51 0.49 0.46 0.44 0.42 0.41 0.40 0.37 0.35 0.33 0.32 0.31 0.30 0.30 0.29 0.29 0.28 0.29 0.28 0.28 0.28 0.28 0.28 0.29 0.29 0.28 0.27 0.27 0.28 0.29 0.29 0.29
0.63 0.62 0.60 0.58 0.57 0.56 0.54 0.53 0.51 0.50 0.48 0.45 0.43 0.41 0.40 0.38 0.37 0.35 0.33 0.30 0.29 0.28 0.28 0.27 0.28 0.27 0.26 0.26 0.26 0.27 0.27 0.28 0.28 0.28 0.28 0.28 0.28 0.29 0.29 0.29 0.29 0.29
0.62 0.60 0.58 0.57 0.55 0.54 0.52 0.50 0.49 0.47 0.45 0.43 0.41 0.38 0.37 0.35 0.33 0.31 0.30 0.28 0.27 0.27 0.27 0.28 0.28 0.27 0.27 0.26 0.26 0.27 0.27 0.27 0.27 0.28 0.28 0.28 0.29 0.29 0.29 0.30 0.29 0.30
0.59 0.58 0.57 0.56 0.54 0.53 0.51 0.48 0.46 0.44 0.41 0.39 0.38 0.35 0.33 0.32 0.30 0.29 0.28 0.27 0.26 0.27 0.27 0.27 0.27 0.27 0.26 0.26 0.26 0.27 0.27 0.27 0.27 0.28 0.28 0.28 0.29 0.29 0.29 0.29 0.30 0.30
0.59 0.59 0.57 0.55 0.54 0.51 0.48 0.45 0.43 0.41 0.38 0.37 0.35 0.33 0.31 0.29 0.28 0.27 0.27 0.26 0.26 0.26 0.27 0.28 0.27 0.26 0.26 0.26 0.27 0.27 0.27 0.27 0.27 0.27 0.27 0.27 0.28 0.28 0.29 0.29 0.29 0.29
0.59 0.58 0.57 0.54 0.51 0.48 0.45 0.42 0.40 0.38 0.36 0.34 0.33 0.31 0.30 0.28 0.27 0.26 0.25 0.24 0.25 0.25 0.26 0.27 0.26 0.26 0.27 0.27 0.26 0.26 0.28 0.27 0.27 0.27 0.27 0.26 0.27 0.27 0.28 0.29 0.29 0.30
0.58 0.56 0.54 0.51 0.48 0.44 0.42 0.40 0.38 0.36 0.34 0.32 0.31 0.30 0.29 0.28 0.27 0.26 0.25 0.24 0.23 0.24 0.25 0.26 0.26 0.26 0.27 0.26 0.27 0.26 0.26 0.26 0.26 0.26 0.27 0.26 0.26 0.26 0.27 0.28 0.29 0.30
0.56 0.53 0.51 0.47 0.45 0.42 0.40 0.37 0.35 0.34 0.32 0.31 0.29 0.28 0.27 0.27 0.26 0.24 0.24 0.24 0.24 0.24 0.24 0.25 0.26 0.26 0.26 0.26 0.25 0.25 0.26 0.25 0.25 0.25 0.26 0.27 0.27 0.27 0.26 0.27 0.28 0.30
0.52 0.50 0.47 0.44 0.42 0.38 0.36 0.35 0.34 0.32 0.30 0.29 0.28 0.27 0.27 0.26 0.25 0.24 0.24 0.24 0.25 0.25 0.25 0.25 0.25 0.26 0.25 0.25 0.25 0.25 0.25 0.25 0.27 0.27 0.27 0.27 0.27 0.27 0.28 0.29 0.29 0.29
0.50 0.47 0.45 0.41 0.38 0.36 0.34 0.33 0.31 0.30 0.29 0.27 0.26 0.27 0.26 0.24 0.24 0.24 0.23 0.24 0.24 0.24 0.24 0.25 0.25 0.25 0.25 0.25 0.24 0.24 0.25 0.26 0.27 0.27 0.27 0.28 0.28 0.29 0.29 0.29 0.30 0.30
0.46 0.43 0.39 0.37 0.35 0.33 0.32 0.31 0.30 0.29 0.28 0.28 0.27 0.26 0.25 0.24 0.24 0.23 0.23 0.23 0.24 0.24 0.24 0.25 0.25 0.25 0.25 0.25 0.24 0.24 0.25 0.26 0.27 0.28 0.28 0.28 0.28 0.29 0.30 0.30 0.31 0.31
0.41 0.38 0.36 0.34 0.33 0.32 0.31 0.30 0.29 0.28 0.27 0.27 0.26 0.25 0.24 0.23 0.22 0.22 0.23 0.23 0.24 0.24 0.25 0.24 0.25 0.25 0.25 0.25 0.24 0.24 0.26 0.27 0.28 0.28 0.28 0.29 0.29 0.30 0.31 0.32 0.32 0.33
0.37 0.35 0.33 0.32 0.31 0.31 0.30 0.28 0.28 0.28 0.27 0.28 0.27 0.26 0.25 0.25 0.24 0.24 0.23 0.23 0.23 0.24 0.25 0.24 0.26 0.25 0.25 0.25 0.25 0.25 0.26 0.27 0.27 0.27 0.27 0.28 0.29 0.30 0.31 0.33 0.33 0.34
0.34 0.32 0.31 0.31 0.30 0.29 0.28 0.28 0.27 0.27 0.28 0.28 0.26 0.25 0.24 0.24 0.24 0.23 0.24 0.23 0.23 0.24 0.24 0.24 0.25 0.25 0.25 0.25 0.26 0.26 0.27 0.27 0.27 0.27 0.27 0.27 0.28 0.30 0.31 0.32 0.33 0.34
0.33 0.31 0.30 0.29 0.28 0.27 0.27 0.28 0.28 0.28 0.28 0.28 0.26 0.25 0.24 0.24 0.24 0.23 0.23 0.23 0.23 0.23 0.24 0.24 0.25 0.26 0.25 0.25 0.27 0.28 0.29 0.28 0.27 0.27 0.27 0.27 0.28 0.30 0.31 0.32 0.33 0.34
0.32 0.31 0.29 0.28 0.27 0.27 0.28 0.27 0.27 0.27 0.28 0.29 0.27 0.27 0.25 0.25 0.24 0.23 0.23 0.23 0.23 0.24 0.24 0.24 0.25 0.26 0.26 0.26 0.28 0.29 0.29 0.30 0.28 0.27 0.26 0.27 0.28 0.29 0.31 0.32 0.33 0.34
0.32 0.30 0.30 0.29 0.28 0.28 0.28 0.28 0.29 0.28 0.28 0.28 0.27 0.27 0.25 0.25 0.24 0.23 0.22 0.22 0.23 0.23 0.24 0.25 0.25 0.26 0.26 0.27 0.28 0.29 0.29 0.30 0.29 0.28 0.27 0.27 0.28 0.29 0.29 0.31 0.32 0.33

ECMWFNIL_prec_pwat_096.txt.gz
Precipitable_Water
0.91 0.87 0.82 0.78 0.76 0.75 0.73 0.71 0.71 0.70 0.69 0.69 0.67 0.67 0.67 0.67 0.68 0.66 0.65 0.63 0.62 0.60 0.60 0.59 0.58 0.58 0.57 0.57 0.57 0.57 0.55 0.55 0.55 0.54 0.55 0.56 0.55 0.55 0.54 0.55 0.57 0.57
0.86 0.84 0.81 0.78 0.75 0.75 0.74 0.73 0.72 0.70 0.68 0.68 0.68 0.67 0.67 0.66 0.65 0.63 0.61 0.59 0.57 0.56 0.56 0.55 0.54 0.53 0.52 0.51 0.51 0.50 0.48 0.47 0.45 0.48 0.47 0.47 0.46 0.46 0.45 0.47 0.48 0.50
0.86 0.82 0.79 0.76 0.74 0.74 0.73 0.72 0.71 0.70 0.68 0.67 0.67 0.66 0.64 0.64 0.62 0.60 0.57 0.56 0.53 0.52 0.51 0.50 0.48 0.47 0.46 0.45 0.45 0.43 0.42 0.40 0.38 0.41 0.42 0.41 0.42 0.41 0.42 0.42 0.43 0.44
0.83 0.81 0.79 0.77 0.75 0.74 0.73 0.70 0.69 0.68 0.67 0.65 0.64 0.63 0.62 0.60 0.58 0.56 0.54 0.52 0.50 0.48 0.47 0.46 0.45 0.44 0.43 0.42 0.41 0.39 0.39 0.38 0.37 0.38 0.38 0.38 0.38 0.39 0.40 0.41 0.41 0.41
0.80 0.79 0.78 0.76 0.75 0.74 0.71 0.67 0.65 0.65 0.64 0.62 0.61 0.59 0.57 0.55 0.53 0.51 0.50 0.48 0.47 0.46 0.44 0.43 0.41 0.40 0.40 0.38 0.38 0.36 0.36 0.35 0.36 0.36 0.35 0.35 0.36 0.37 0.37 0.38 0.37 0.38
0.78 0.77 0.76 0.74 0.73 0.70 0.67 0.65 0.63 0.61 0.59 0.57 0.55 0.54 0.52 0.51 0.49 0.48 0.47 0.45 0.44 0.43 0.41 0.40 0.38 0.37 0.37 0.36 0.35 0.34 0.33 0.32 0.34 0.34 0.33 0.33 0.34 0.36 0.36 0.36 0.35 0.35
0.73 0.72 0.71 0.71 0.68 0.67 0.64 0.61 0.59 0.58 0.56 0.55 0.53 0.51 0.49 0.48 0.47 0.46 0.45 0.44 0.42 0.40 0.39 0.37 0.36 0.35 0.35 0.34 0.32 0.32 0.32 0.32 0.32 0.31 0.30 0.32 0.33 0.32 0.34 0.34 0.34 0.34
0.71 0.70 0.69 0.67 0.64 0.62 0.59 0.57 0.56 0.55 0.54 0.51 0.49 0.48 0.47 0.46 0.45 0.45 0.43 0.42 0.40 0.39 0.37 0.36 0.34 0.34 0.33 0.32 0.30 0.30 0.30 0.31 0.30 0.30 0.30 0.30 0.31 0.30 0.31 0.34 0.34 0.33
0.70 0.68 0.67 0.65 0.61 0.58 0.56 0.54 0.53 0.52 0.51 0.48 0.47 0.46 0.47 0.46 0.44 0.43 0.41 0.41 0.39 0.37 0.36 0.34 0.33 0.31 0.31 0.31 0.30 0.30 0.29 0.29 0.30 0.30 0.29 0.29 0.29 0.30 0.31 0.33 0.33 0.33
0.68 0.66 0.64 0.61 0.58 0.57 0.55 0.53 0.51 0.49 0.48 0.47 0.46 0.46 0.45 0.44 0.43 0.41 0.40 0.39 0.37 0.36 0.34 0.32 0.31 0.30 0.30 0.30 0.30 0.29 0.29 0.28 0.29 0.29 0.30 0.30 0.30 0.31 0.31 0.32 0.32 0.32
0.65 0.64 0.61 0.59 0.57 0.55 0.53 0.51 0.49 0.47 0.47 0.45 0.45 0.44 0.43 0.42 0.41 0.40 0.38 0.37 0.35 0.34 0.33 0.31 0.30 0.29 0.28 0.28 0.29 0.30 0.30 0.29 0.30 0.30 0.31 0.31 0.32 0.32 0.33 0.33 0.32 0.32
0.64 0.62 0.59 0.56 0.54 0.52 0.50 0.49 0.47 0.46 0.45 0.45 0.44 0.42 0.41 0.40 0.39 0.38 0.37 0.35 0.34 0.34 0.32 0.30 0.29 0.28 0.27 0.27 0.28 0.29 0.30 0.31 0.32 0.32 0.32 0.32 0.32 0.33 0.33 0.33 0.32 0.32
0.62 0.60 0.58 0.55 0.52 0.50 0.48 0.46 0.45 0.46 0.45 0.43 0.42 0.41 0.39 0.38 0.37 0.35 0.35 0.34 0.33 0.33 0.31 0.30 0.29 0.28 0.27 0.27 0.28 0.28 0.30 0.31 0.32 0.32 0.31 0.32 0.33 0.33 0.34 0.34 0.33 0.33
0.60 0.58 0.55 0.52 0.50 0.48 0.47 0.46 0.46 0.45 0.44 0.43 0.41 0.40 0.38 0.36 0.35 0.34 0.34 0.33 0.33 0.33 0.32 0.31 0.29 0.27 0.27 0.26 0.27 0.27 0.29 0.31 0.32 0.31 0.31 0.32 0.33 0.34 0.33 0.33 0.33 0.33
0.59 0.57 0.54 0.51 0.49 0.47 0.46 0.46 0.45 0.44 0.42 0.41 0.40 0.39 0.38 0.36 0.34 0.34 0.32 0.32 0.33 0.33 0.32 0.30 0.28 0.27 0.27 0.26 0.25 0.26 0.29 0.30 0.32 0.31 0.31 0.31 0.32 0.32 0.32 0.32 0.32 0.32
0.58 0.55 0.52 0.50 0.48 0.46 0.46 0.45 0.44 0.42 0.41 0.40 0.39 0.37 0.36 0.35 0.33 0.32 0.32 0.31 0.31 0.32 0.31 0.29 0.26 0.26 0.26 0.26 0.26 0.26 0.27 0.31 0.32 0.32 0.32 0.31 0.31 0.30 0.30 0.31 0.31 0.32
0.56 0.52 0.50 0.48 0.48 0.48 0.46 0.44 0.42 0.41 0.40 0.39 0.37 0.35 0.34 0.32 0.31 0.30 0.31 0.32 0.31 0.30 0.29 0.28 0.26 0.25 0.24 0.25 0.26 0.26 0.28 0.30 0.30 0.31 0.31 0.31 0.30 0.29 0.30 0.30 0.31 0.32
0.55 0.53 0.51 0.50 0.49 0.45 0.44 0.42 0.41 0.39 0.37 0.36 0.35 0.33 0.32 0.31 0.30 0.30 0.30 0.31 0.31 0.30 0.28 0.27 0.25 0.24 0.24 0.24 0.25 0.26 0.27 0.29 0.31 0.30 0.31 0.30 0.30 0.31 0.31 0.31 0.31 0.31
0.57 0.54 0.51 0.49 0.47 0.44 0.42 0.40 0.37 0.36 0.35 0.33 0.32 0.32 0.31 0.29 0.29 0.29 0.29 0.30 0.31 0.29 0.28 0.26 0.24 0.25 0.24 0.24 0.25 0.26 0.27 0.28 0.31 0.31 0.30 0.30 0.31 0.32 0.32 0.31 0.31 0.31
0.53 0.50 0.47 0.43 0.42 0.40 0.38 0.36 0.35 0.34 0.34 0.33 0.32 0.31 0.29 0.28 0.28 0.27 0.28 0.29 0.30 0.30 0.28 0.26 0.23 0.24 0.24 0.24 0.25 0.25 0.27 0.28 0.31 0.31 0.31 0.30 0.31 0.31 0.32 0.32 0.32 0.31
0.44 0.42 0.40 0.39 0.37 0.36 0.35 0.35 0.34 0.34 0.33 0.31 0.30 0.29 0.28 0.27 0.26 0.26 0.27 0.27 0.28 0.29 0.29 0.27 0.24 0.25 0.25 0.25 0.26 0.26 0.27 0.29 0.30 0.31 0.30 0.30 0.31 0.31 0.31 0.32 0.33 0.33
0.41 0.38 0.37 0.36 0.35 0.35 0.34 0.34 0.34 0.33 0.31 0.30 0.29 0.29 0.29 0.28 0.27 0.26 0.26 0.26 0.27 0.28 0.28 0.27 0.25 0.25 0.25 0.25 0.25 0.27 0.27 0.29 0.29 0.29 0.29 0.29 0.30 0.30 0.30 0.32 0.33 0.32
0.38 0.36 0.35 0.35 0.35 0.34 0.34 0.33 0.32 0.31 0.31 0.30 0.28 0.28 0.28 0.27 0.26 0.25 0.26 0.26 0.25 0.26 0.28 0.28 0.26 0.25 0.25 0.25 0.25 0.27 0.28 0.29 0.28 0.28 0.29 0.29 0.29 0.29 0.30 0.31 0.31 0.31
0.36 0.35 0.34 0.34 0.34 0.33 0.32 0.32 0.31 0.31 0.30 0.31 0.28 0.27 0.26 0.27 0.27 0.26 0.26 0.26 0.25 0.24 0.26 0.27 0.27 0.25 0.25 0.25 0.25 0.25 0.27 0.29 0.27 0.27 0.28 0.28 0.28 0.29 0.29 0.29 0.30 0.31
0.36 0.35 0.34 0.34 0.33 0.33 0.32 0.31 0.31 0.31 0.31 0.32 0.30 0.28 0.27 0.27 0.26 0.25 0.25 0.26 0.27 0.27 0.25 0.26 0.27 0.26 0.24 0.25 0.25 0.25 0.27 0.30 0.28 0.27 0.27 0.29 0.29 0.28 0.29 0.29 0.31 0.32
0.35 0.34 0.34 0.33 0.33 0.33 0.33 0.33 0.32 0.32 0.32 0.30 0.29 0.28 0.26 0.27 0.27 0.26 0.25 0.25 0.26 0.27 0.26 0.25 0.26 0.26 0.25 0.24 0.25 0.26 0.26 0.28 0.28 0.26 0.27 0.29 0.29 0.28 0.27 0.29 0.31 0.31

ECMWFNIL_prec_pwat_102.txt.gz
Precipitable_Water
1.02 0.99 0.96 0.92 0.89 0.87 0.85 0.82 0.81 0.79 0.77 0.74 0.68 0.65 0.63 0.63 0.63 0.60 0.55 0.52 0.51 0.51 0.51 0.51 0.50 0.50 0.50 0.50 0.50 0.47 0.46 0.49 0.49 0.49 0.45 0.44 0.44 0.43 0.43 0.42 0.42 0.42
1.00 0.97 0.94 0.92 0.89 0.88 0.86 0.84 0.82 0.80 0.75 0.71 0.67 0.64 0.62 0.59 0.58 0.57 0.54 0.50 0.48 0.47 0.49 0.49 0.49 0.48 0.48 0.48 0.49 0.47 0.45 0.47 0.47 0.48 0.46 0.43 0.42 0.42 0.41 0.43 0.44 0.43
1.01 1.00 0.98 0.93 0.90 0.87 0.85 0.85 0.82 0.77 0.73 0.69 0.66 0.62 0.59 0.58 0.54 0.53 0.51 0.48 0.46 0.45 0.46 0.46 0.47 0.48 0.48 0.48 0.48 0.48 0.47 0.45 0.46 0.48 0.47 0.44 0.42 0.41 0.41 0.43 0.43 0.40
0.97 0.97 0.96 0.93 0.90 0.86 0.85 0.81 0.77 0.73 0.68 0.64 0.60 0.59 0.57 0.54 0.52 0.49 0.48 0.47 0.45 0.45 0.44 0.45 0.46 0.48 0.47 0.48 0.47 0.47 0.47 0.46 0.46 0.47 0.44 0.44 0.41 0.42 0.41 0.41 0.42 0.40
0.90 0.90 0.91 0.90 0.88 0.86 0.81 0.74 0.68 0.66 0.63 0.62 0.61 0.59 0.55 0.52 0.50 0.49 0.48 0.46 0.46 0.44 0.44 0.44 0.47 0.47 0.47 0.47 0.46 0.45 0.46 0.45 0.45 0.46 0.44 0.43 0.42 0.40 0.41 0.40 0.41 0.40
0.85 0.85 0.83 0.82 0.79 0.74 0.69 0.66 0.64 0.63 0.62 0.59 0.57 0.57 0.54 0.52 0.50 0.50 0.48 0.45 0.45 0.45 0.44 0.44 0.44 0.46 0.47 0.46 0.47 0.45 0.45 0.45 0.44 0.44 0.42 0.40 0.41 0.40 0.39 0.39 0.39 0.38
0.82 0.81 0.78 0.76 0.72 0.70 0.66 0.64 0.62 0.61 0.59 0.58 0.55 0.53 0.54 0.51 0.50 0.47 0.46 0.46 0.44 0.43 0.43 0.43 0.42 0.44 0.46 0.46 0.46 0.45 0.45 0.45 0.43 0.42 0.40 0.40 0.40 0.38 0.40 0.39 0.37 0.37
0.77 0.75 0.73 0.69 0.65 0.63 0.60 0.60 0.59 0.58 0.57 0.56 0.53 0.52 0.51 0.50 0.50 0.49 0.46 0.43 0.41 0.41 0.40 0.41 0.42 0.42 0.44 0.45 0.46 0.45 0.44 0.44 0.43 0.42 0.41 0.40 0.41 0.37 0.38 0.38 0.37 0.36
0.72 0.69 0.67 0.63 0.61 0.60 0.59 0.59 0.59 0.56 0.55 0.51 0.51 0.50 0.51 0.49 0.47 0.48 0.46 0.43 0.41 0.38 0.38 0.38 0.38 0.39 0.41 0.42 0.44 0.46 0.45 0.44 0.43 0.42 0.40 0.39 0.39 0.36 0.36 0.37 0.35 0.35
0.68 0.66 0.63 0.61 0.58 0.58 0.57 0.56 0.56 0.56 0.54 0.52 0.49 0.48 0.47 0.47 0.47 0.46 0.44 0.42 0.40 0.38 0.36 0.35 0.35 0.36 0.38 0.40 0.42 0.45 0.44 0.42 0.42 0.42 0.40 0.39 0.39 0.37 0.36 0.35 0.34 0.34
0.65 0.63 0.60 0.59 0.58 0.58 0.57 0.56 0.55 0.53 0.51 0.48 0.47 0.46 0.47 0.47 0.47 0.46 0.41 0.40 0.38 0.37 0.35 0.34 0.34 0.35 0.36 0.38 0.41 0.45 0.44 0.43 0.42 0.42 0.39 0.38 0.37 0.37 0.35 0.35 0.34 0.33
0.63 0.60 0.58 0.57 0.56 0.56 0.54 0.53 0.52 0.50 0.49 0.48 0.46 0.44 0.44 0.44 0.44 0.45 0.42 0.38 0.38 0.37 0.37 0.36 0.35 0.35 0.35 0.37 0.39 0.41 0.44 0.43 0.40 0.40 0.40 0.37 0.37 0.36 0.35 0.34 0.32 0.32
0.61 0.59 0.58 0.57 0.57 0.56 0.54 0.52 0.51 0.49 0.48 0.47 0.47 0.46 0.45 0.43 0.45 0.45 0.44 0.41 0.39 0.38 0.36 0.36 0.35 0.35 0.34 0.33 0.35 0.38 0.39 0.40 0.38 0.38 0.39 0.35 0.36 0.35 0.34 0.31 0.31 0.30
0.59 0.57 0.56 0.56 0.55 0.53 0.51 0.50 0.49 0.48 0.48 0.48 0.48 0.47 0.47 0.48 0.49 0.49 0.47 0.44 0.40 0.38 0.37 0.36 0.34 0.32 0.30 0.30 0.32 0.35 0.36 0.37 0.38 0.37 0.37 0.33 0.34 0.34 0.32 0.32 0.32 0.30
0.58 0.57 0.57 0.55 0.54 0.54 0.51 0.50 0.48 0.46 0.45 0.44 0.45 0.46 0.49 0.51 0.53 0.50 0.46 0.43 0.40 0.38 0.36 0.33 0.30 0.29 0.29 0.29 0.29 0.31 0.34 0.35 0.38 0.36 0.35 0.33 0.32 0.34 0.34 0.33 0.32 0.31
0.56 0.55 0.55 0.53 0.51 0.49 0.47 0.46 0.44 0.44 0.43 0.43 0.45 0.48 0.51 0.52 0.51 0.49 0.45 0.40 0.37 0.34 0.31 0.29 0.28 0.29 0.29 0.29 0.30 0.31 0.32 0.34 0.35 0.35 0.35 0.34 0.31 0.33 0.34 0.32 0.33 0.32
0.55 0.54 0.53 0.51 0.49 0.46 0.43 0.42 0.42 0.42 0.43 0.44 0.46 0.47 0.49 0.51 0.52 0.49 0.43 0.36 0.30 0.28 0.27 0.27 0.26 0.27 0.27 0.28 0.29 0.30 0.31 0.32 0.33 0.33 0.33 0.33 0.31 0.32 0.32 0.30 0.33 0.30
0.55 0.53 0.51 0.47 0.45 0.43 0.41 0.42 0.42 0.43 0.45 0.45 0.46 0.48 0.50 0.50 0.49 0.46 0.39 0.34 0.29 0.26 0.25 0.24 0.24 0.26 0.26 0.27 0.28 0.29 0.31 0.33 0.34 0.33 0.32 0.33 0.30 0.32 0.32 0.31 0.31 0.29
0.53 0.50 0.48 0.47 0.45 0.43 0.41 0.41 0.43 0.44 0.44 0.45 0.46 0.44 0.42 0.40 0.40 0.42 0.40 0.36 0.30 0.25 0.23 0.22 0.22 0.24 0.25 0.26 0.27 0.28 0.30 0.32 0.34 0.36 0.34 0.33 0.32 0.30 0.33 0.33 0.31 0.29
0.52 0.50 0.48 0.45 0.42 0.40 0.43 0.46 0.46 0.45 0.45 0.42 0.39 0.36 0.34 0.35 0.38 0.39 0.40 0.37 0.32 0.27 0.24 0.22 0.22 0.22 0.23 0.25 0.26 0.27 0.29 0.30 0.33 0.35 0.31 0.34 0.33 0.25 0.32 0.32 0.31 0.29
0.52 0.48 0.44 0.43 0.45 0.48 0.49 0.48 0.46 0.43 0.40 0.38 0.36 0.35 0.34 0.33 0.34 0.35 0.38 0.38 0.35 0.30 0.24 0.22 0.21 0.22 0.22 0.23 0.26 0.28 0.29 0.29 0.28 0.32 0.32 0.33 0.33 0.28 0.32 0.33 0.31 0.29
0.47 0.44 0.46 0.49 0.50 0.50 0.48 0.45 0.42 0.39 0.36 0.35 0.34 0.33 0.33 0.33 0.32 0.33 0.35 0.37 0.37 0.31 0.23 0.21 0.21 0.21 0.20 0.21 0.24 0.26 0.27 0.28 0.25 0.27 0.30 0.31 0.34 0.30 0.30 0.33 0.30 0.29
0.50 0.52 0.53 0.51 0.49 0.46 0.42 0.39 0.38 0.37 0.36 0.36 0.34 0.33 0.33 0.31 0.29 0.27 0.29 0.32 0.34 0.32 0.25 0.21 0.20 0.20 0.20 0.20 0.20 0.23 0.25 0.25 0.24 0.24 0.28 0.30 0.32 0.31 0.29 0.32 0.30 0.30
0.55 0.54 0.50 0.48 0.45 0.42 0.41 0.40 0.40 0.38 0.37 0.37 0.35 0.35 0.34 0.34 0.32 0.29 0.26 0.25 0.27 0.28 0.28 0.22 0.20 0.20 0.20 0.20 0.19 0.20 0.23 0.24 0.23 0.21 0.24 0.27 0.29 0.32 0.30 0.29 0.31 0.31
0.54 0.50 0.47 0.45 0.44 0.41 0.40 0.38 0.37 0.37 0.36 0.36 0.35 0.34 0.34 0.35 0.35 0.33 0.30 0.28 0.26 0.25 0.27 0.26 0.24 0.24 0.22 0.19 0.19 0.20 0.21 0.23 0.23 0.21 0.21 0.24 0.27 0.28 0.31 0.28 0.29 0.30
0.51 0.47 0.46 0.44 0.41 0.40 0.40 0.38 0.38 0.40 0.40 0.38 0.38 0.37 0.34 0.33 0.33 0.32 0.32 0.32 0.30 0.29 0.28 0.28 0.27 0.27 0.26 0.22 0.20 0.20 0.20 0.21 0.23 0.21 0.19 0.20 0.23 0.26 0.27 0.27 0.26 0.26

ECMWFNIL_prec_pwat_105.txt.gz
Precipitable_Water
1.05 1.02 0.98 0.96 0.96 0.96 0.93 0.89 0.85 0.78 0.72 0.67 0.63 0.61 0.60 0.60 0.59 0.55 0.53 0.51 0.50 0.48 0.48 0.47 0.47 0.47 0.47 0.46 0.46 0.46 0.46 0.47 0.48 0.47 0.46 0.46 0.45 0.45 0.44 0.41 0.36 0.35
1.02 1.02 1.01 0.99 0.96 0.94 0.92 0.89 0.83 0.76 0.69 0.65 0.62 0.61 0.60 0.59 0.57 0.53 0.49 0.47 0.47 0.47 0.47 0.47 0.47 0.46 0.46 0.46 0.46 0.45 0.46 0.48 0.47 0.48 0.44 0.45 0.44 0.44 0.44 0.43 0.39 0.37
1.05 1.03 1.01 0.98 0.97 0.96 0.93 0.90 0.83 0.77 0.70 0.66 0.64 0.60 0.59 0.58 0.55 0.52 0.50 0.48 0.45 0.46 0.46 0.47 0.46 0.46 0.46 0.46 0.46 0.46 0.47 0.47 0.47 0.48 0.45 0.44 0.44 0.43 0.44 0.44 0.39 0.36
0.99 0.98 0.96 0.95 0.94 0.91 0.88 0.83 0.78 0.71 0.66 0.64 0.62 0.61 0.59 0.56 0.54 0.52 0.50 0.48 0.46 0.45 0.46 0.46 0.46 0.46 0.46 0.46 0.46 0.46 0.47 0.47 0.48 0.48 0.44 0.42 0.42 0.42 0.42 0.41 0.38 0.35
0.92 0.91 0.90 0.89 0.88 0.85 0.81 0.75 0.69 0.67 0.64 0.63 0.62 0.60 0.57 0.55 0.52 0.51 0.49 0.48 0.46 0.44 0.44 0.45 0.45 0.45 0.46 0.45 0.46 0.45 0.46 0.46 0.46 0.45 0.43 0.42 0.42 0.41 0.39 0.38 0.36 0.33
0.89 0.86 0.84 0.82 0.80 0.76 0.72 0.68 0.66 0.64 0.62 0.60 0.59 0.59 0.57 0.55 0.52 0.50 0.48 0.45 0.44 0.43 0.42 0.43 0.43 0.45 0.46 0.46 0.45 0.45 0.45 0.44 0.45 0.45 0.43 0.41 0.41 0.41 0.40 0.37 0.35 0.32
0.84 0.83 0.81 0.79 0.75 0.72 0.68 0.66 0.64 0.61 0.60 0.59 0.58 0.56 0.55 0.52 0.50 0.48 0.45 0.43 0.41 0.40 0.39 0.39 0.41 0.42 0.45 0.46 0.46 0.45 0.46 0.46 0.46 0.46 0.44 0.42 0.39 0.38 0.38 0.35 0.33 0.32
0.83 0.81 0.77 0.74 0.70 0.67 0.64 0.62 0.60 0.58 0.57 0.57 0.55 0.56 0.55 0.51 0.48 0.44 0.42 0.39 0.37 0.36 0.37 0.38 0.39 0.42 0.45 0.47 0.47 0.47 0.46 0.47 0.46 0.45 0.43 0.40 0.37 0.33 0.34 0.34 0.32 0.29
0.82 0.77 0.74 0.70 0.65 0.62 0.59 0.58 0.57 0.56 0.55 0.54 0.53 0.53 0.53 0.50 0.46 0.42 0.39 0.36 0.34 0.33 0.34 0.36 0.39 0.41 0.46 0.47 0.47 0.47 0.46 0.45 0.45 0.43 0.40 0.37 0.34 0.32 0.32 0.31 0.28 0.27
0.77 0.73 0.69 0.65 0.61 0.59 0.57 0.56 0.54 0.53 0.54 0.52 0.52 0.51 0.49 0.47 0.44 0.40 0.37 0.34 0.32 0.32 0.33 0.35 0.38 0.41 0.45 0.46 0.46 0.47 0.46 0.46 0.45 0.40 0.37 0.35 0.34 0.32 0.30 0.28 0.27 0.26
0.72 0.68 0.65 0.61 0.58 0.58 0.56 0.55 0.53 0.52 0.52 0.52 0.51 0.50 0.47 0.43 0.40 0.38 0.35 0.33 0.32 0.32 0.33 0.34 0.36 0.39 0.42 0.44 0.46 0.45 0.45 0.45 0.42 0.38 0.36 0.35 0.33 0.31 0.29 0.28 0.27 0.26
0.69 0.66 0.62 0.58 0.57 0.56 0.54 0.53 0.52 0.51 0.50 0.51 0.51 0.48 0.45 0.42 0.38 0.35 0.33 0.32 0.32 0.34 0.35 0.34 0.36 0.39 0.42 0.43 0.43 0.42 0.42 0.42 0.41 0.37 0.34 0.34 0.32 0.30 0.30 0.29 0.26 0.27
0.67 0.64 0.60 0.57 0.56 0.54 0.54 0.53 0.51 0.51 0.49 0.47 0.48 0.46 0.43 0.40 0.37 0.34 0.33 0.33 0.34 0.35 0.34 0.35 0.36 0.39 0.40 0.40 0.40 0.40 0.39 0.38 0.38 0.36 0.32 0.34 0.33 0.32 0.31 0.30 0.28 0.29
0.66 0.63 0.59 0.57 0.56 0.55 0.54 0.53 0.52 0.50 0.50 0.49 0.47 0.44 0.42 0.39 0.36 0.34 0.35 0.35 0.34 0.34 0.35 0.36 0.34 0.34 0.35 0.37 0.37 0.37 0.36 0.36 0.36 0.35 0.32 0.31 0.33 0.34 0.33 0.30 0.29 0.28
0.65 0.62 0.59 0.57 0.56 0.54 0.53 0.52 0.50 0.49 0.49 0.49 0.48 0.46 0.43 0.40 0.38 0.36 0.35 0.34 0.34 0.33 0.32 0.31 0.30 0.31 0.33 0.34 0.34 0.34 0.35 0.34 0.34 0.34 0.33 0.30 0.31 0.33 0.32 0.30 0.29 0.28
0.63 0.60 0.58 0.56 0.55 0.53 0.51 0.49 0.48 0.48 0.48 0.47 0.47 0.45 0.43 0.41 0.35 0.33 0.33 0.32 0.29 0.27 0.27 0.27 0.28 0.30 0.31 0.32 0.33 0.33 0.33 0.32 0.32 0.31 0.31 0.29 0.30 0.31 0.30 0.30 0.30 0.28
0.61 0.58 0.57 0.55 0.53 0.51 0.49 0.48 0.47 0.47 0.46 0.47 0.47 0.46 0.43 0.40 0.36 0.33 0.29 0.27 0.25 0.24 0.25 0.26 0.27 0.29 0.30 0.31 0.32 0.32 0.32 0.31 0.31 0.32 0.32 0.28 0.28 0.30 0.29 0.29 0.29 0.28
0.59 0.58 0.55 0.53 0.51 0.49 0.48 0.46 0.45 0.45 0.44 0.45 0.47 0.47 0.44 0.42 0.38 0.31 0.26 0.24 0.24 0.24 0.24 0.25 0.26 0.28 0.29 0.30 0.30 0.31 0.33 0.33 0.33 0.32 0.32 0.30 0.25 0.28 0.30 0.29 0.28 0.28
0.58 0.56 0.53 0.51 0.49 0.47 0.46 0.45 0.43 0.43 0.43 0.45 0.46 0.48 0.47 0.40 0.35 0.31 0.26 0.25 0.24 0.23 0.22 0.23 0.25 0.27 0.28 0.28 0.29 0.30 0.31 0.31 0.31 0.31 0.31 0.31 0.28 0.24 0.30 0.29 0.28 0.27
0.56 0.53 0.51 0.49 0.47 0.45 0.44 0.43 0.42 0.43 0.45 0.46 0.46 0.46 0.42 0.38 0.36 0.33 0.27 0.24 0.23 0.22 0.22 0.22 0.23 0.25 0.27 0.28 0.28 0.27 0.27 0.29 0.29 0.29 0.30 0.30 0.29 0.27 0.29 0.29 0.28 0.27
0.55 0.53 0.48 0.46 0.44 0.43 0.42 0.41 0.42 0.42 0.42 0.42 0.40 0.39 0.39 0.39 0.36 0.33 0.29 0.24 0.22 0.21 0.20 0.20 0.20 0.22 0.24 0.26 0.26 0.25 0.24 0.25 0.26 0.27 0.28 0.29 0.29 0.28 0.30 0.29 0.28 0.27
0.54 0.50 0.46 0.44 0.44 0.43 0.42 0.42 0.43 0.44 0.42 0.40 0.37 0.37 0.39 0.40 0.39 0.36 0.30 0.26 0.21 0.20 0.19 0.18 0.19 0.19 0.19 0.20 0.22 0.23 0.22 0.21 0.22 0.24 0.26 0.28 0.28 0.27 0.28 0.30 0.29 0.27
0.52 0.49 0.46 0.44 0.45 0.44 0.44 0.44 0.43 0.40 0.37 0.36 0.33 0.33 0.33 0.35 0.35 0.34 0.32 0.27 0.24 0.22 0.21 0.20 0.19 0.19 0.19 0.18 0.19 0.20 0.20 0.19 0.19 0.22 0.24 0.25 0.27 0.27 0.28 0.29 0.30 0.27
0.51 0.48 0.46 0.46 0.47 0.46 0.46 0.43 0.40 0.38 0.36 0.37 0.33 0.29 0.27 0.28 0.31 0.31 0.29 0.27 0.26 0.25 0.24 0.23 0.22 0.21 0.19 0.18 0.18 0.19 0.19 0.18 0.18 0.18 0.20 0.23 0.25 0.27 0.27 0.27 0.29 0.28
0.52 0.50 0.49 0.50 0.49 0.47 0.44 0.40 0.38 0.38 0.39 0.39 0.37 0.35 0.32 0.30 0.28 0.27 0.28 0.30 0.30 0.29 0.29 0.27 0.25 0.23 0.20 0.18 0.18 0.18 0.18 0.18 0.18 0.17 0.17 0.18 0.21 0.22 0.26 0.26 0.26 0.26
0.53 0.52 0.52 0.52 0.48 0.45 0.42 0.41 0.41 0.40 0.39 0.38 0.37 0.36 0.34 0.33 0.32 0.31 0.30 0.30 0.31 0.31 0.31 0.30 0.28 0.25 0.22 0.19 0.18 0.18 0.19 0.19 0.19 0.18 0.17 0.18 0.20 0.21 0.21 0.23 0.24 0.24

ECMWFNIL_prec_pwat_108.txt.gz
Precipitable_Water
1.11 1.10 1.07 1.05 1.04 1.03 1.00 0.96 0.92 0.83 0.77 0.73 0.67 0.63 0.61 0.61 0.62 0.61 0.61 0.60 0.59 0.56 0.54 0.51 0.49 0.48 0.48 0.48 0.48 0.46 0.45 0.45 0.44 0.45 0.46 0.45 0.43 0.43 0.41 0.40 0.38 0.35
1.13 1.13 1.10 1.05 0.99 0.96 0.93 0.92 0.88 0.82 0.74 0.70 0.67 0.65 0.64 0.61 0.62 0.61 0.60 0.58 0.56 0.54 0.52 0.50 0.48 0.47 0.47 0.47 0.47 0.45 0.44 0.43 0.42 0.45 0.44 0.44 0.43 0.43 0.42 0.39 0.35 0.32
1.12 1.09 1.06 1.02 0.99 0.99 0.98 0.96 0.92 0.84 0.75 0.71 0.68 0.65 0.63 0.62 0.60 0.60 0.59 0.56 0.53 0.51 0.50 0.49 0.48 0.47 0.46 0.46 0.46 0.44 0.43 0.42 0.40 0.43 0.44 0.42 0.43 0.41 0.41 0.39 0.33 0.30
1.10 1.07 1.05 1.03 1.00 0.97 0.95 0.90 0.85 0.77 0.70 0.66 0.63 0.64 0.63 0.62 0.59 0.57 0.55 0.54 0.50 0.49 0.48 0.48 0.47 0.46 0.45 0.45 0.44 0.43 0.43 0.43 0.43 0.43 0.42 0.42 0.42 0.40 0.39 0.37 0.31 0.29
1.07 1.05 1.03 0.99 0.95 0.92 0.89 0.84 0.77 0.69 0.65 0.63 0.63 0.63 0.61 0.59 0.55 0.52 0.50 0.49 0.48 0.47 0.47 0.45 0.45 0.44 0.44 0.43 0.43 0.41 0.43 0.43 0.43 0.43 0.41 0.40 0.41 0.40 0.38 0.33 0.28 0.26
1.04 1.00 0.95 0.91 0.87 0.85 0.82 0.76 0.70 0.65 0.63 0.62 0.61 0.60 0.59 0.56 0.52 0.49 0.47 0.46 0.46 0.46 0.45 0.44 0.43 0.43 0.43 0.43 0.43 0.43 0.44 0.43 0.44 0.43 0.40 0.38 0.38 0.38 0.34 0.29 0.26 0.25
0.97 0.92 0.88 0.86 0.84 0.82 0.76 0.70 0.66 0.64 0.63 0.62 0.61 0.58 0.56 0.52 0.49 0.47 0.45 0.44 0.43 0.43 0.43 0.42 0.42 0.42 0.43 0.43 0.43 0.43 0.44 0.44 0.43 0.41 0.38 0.36 0.35 0.32 0.30 0.27 0.26 0.25
0.93 0.89 0.85 0.84 0.80 0.77 0.71 0.66 0.64 0.63 0.62 0.60 0.57 0.56 0.53 0.49 0.46 0.45 0.43 0.42 0.40 0.40 0.41 0.41 0.42 0.41 0.42 0.43 0.43 0.43 0.43 0.44 0.41 0.39 0.35 0.32 0.29 0.26 0.27 0.27 0.26 0.25
0.92 0.88 0.84 0.79 0.74 0.71 0.66 0.64 0.62 0.61 0.61 0.57 0.55 0.53 0.50 0.47 0.43 0.40 0.38 0.38 0.37 0.38 0.39 0.40 0.40 0.40 0.42 0.44 0.43 0.43 0.42 0.41 0.39 0.35 0.32 0.30 0.26 0.25 0.25 0.26 0.26 0.25
0.90 0.86 0.80 0.75 0.70 0.67 0.63 0.62 0.61 0.61 0.60 0.57 0.55 0.51 0.47 0.45 0.40 0.36 0.34 0.33 0.33 0.34 0.36 0.37 0.39 0.41 0.42 0.43 0.44 0.44 0.41 0.38 0.36 0.33 0.31 0.28 0.27 0.27 0.26 0.26 0.25 0.24
0.86 0.82 0.77 0.72 0.68 0.65 0.62 0.61 0.61 0.60 0.59 0.56 0.52 0.48 0.46 0.42 0.37 0.34 0.31 0.30 0.30 0.31 0.33 0.36 0.40 0.42 0.43 0.44 0.43 0.41 0.39 0.37 0.34 0.32 0.30 0.29 0.29 0.29 0.28 0.26 0.26 0.24
0.82 0.78 0.74 0.71 0.67 0.64 0.62 0.61 0.61 0.59 0.56 0.53 0.48 0.43 0.41 0.37 0.33 0.32 0.31 0.30 0.30 0.31 0.34 0.38 0.41 0.43 0.42 0.39 0.37 0.38 0.37 0.36 0.33 0.32 0.32 0.32 0.32 0.30 0.29 0.28 0.27 0.27
0.79 0.75 0.72 0.68 0.66 0.63 0.62 0.61 0.60 0.58 0.53 0.48 0.46 0.41 0.36 0.33 0.33 0.32 0.32 0.31 0.31 0.33 0.35 0.38 0.40 0.39 0.36 0.35 0.36 0.36 0.35 0.33 0.32 0.33 0.34 0.33 0.32 0.31 0.30 0.30 0.29 0.28
0.77 0.73 0.70 0.68 0.67 0.64 0.61 0.60 0.59 0.56 0.52 0.48 0.45 0.39 0.34 0.32 0.32 0.31 0.32 0.32 0.32 0.33 0.35 0.37 0.36 0.34 0.34 0.34 0.35 0.34 0.34 0.33 0.33 0.32 0.32 0.32 0.32 0.31 0.30 0.30 0.30 0.29
0.75 0.71 0.70 0.68 0.66 0.63 0.60 0.58 0.56 0.54 0.50 0.46 0.43 0.38 0.35 0.33 0.32 0.31 0.30 0.31 0.33 0.33 0.32 0.32 0.32 0.33 0.33 0.33 0.33 0.33 0.34 0.33 0.32 0.31 0.31 0.31 0.30 0.30 0.30 0.30 0.29 0.30
0.73 0.70 0.69 0.67 0.64 0.60 0.58 0.57 0.54 0.51 0.47 0.44 0.41 0.37 0.34 0.33 0.32 0.32 0.32 0.31 0.31 0.30 0.28 0.29 0.30 0.32 0.33 0.33 0.33 0.33 0.33 0.32 0.31 0.30 0.30 0.30 0.29 0.29 0.29 0.29 0.28 0.30
0.71 0.69 0.68 0.65 0.62 0.59 0.58 0.56 0.53 0.50 0.46 0.42 0.38 0.34 0.31 0.31 0.31 0.31 0.31 0.30 0.28 0.26 0.27 0.28 0.30 0.31 0.32 0.32 0.32 0.32 0.32 0.32 0.31 0.30 0.30 0.28 0.28 0.29 0.28 0.28 0.28 0.28
0.70 0.68 0.66 0.63 0.60 0.57 0.56 0.55 0.53 0.49 0.45 0.42 0.39 0.34 0.31 0.31 0.31 0.31 0.29 0.27 0.26 0.26 0.27 0.27 0.28 0.30 0.32 0.32 0.32 0.32 0.33 0.33 0.32 0.31 0.30 0.28 0.26 0.28 0.28 0.28 0.27 0.26
0.69 0.67 0.64 0.61 0.58 0.56 0.56 0.55 0.51 0.48 0.45 0.42 0.39 0.36 0.33 0.31 0.31 0.29 0.26 0.25 0.25 0.25 0.26 0.27 0.28 0.30 0.31 0.31 0.31 0.31 0.32 0.32 0.31 0.31 0.30 0.29 0.27 0.28 0.28 0.27 0.26 0.24
0.67 0.65 0.62 0.59 0.57 0.56 0.55 0.54 0.50 0.46 0.44 0.44 0.42 0.39 0.34 0.31 0.29 0.26 0.25 0.25 0.25 0.26 0.26 0.27 0.28 0.30 0.29 0.28 0.28 0.29 0.30 0.30 0.30 0.30 0.30 0.29 0.27 0.28 0.28 0.27 0.25 0.24
0.65 0.63 0.60 0.58 0.56 0.54 0.53 0.51 0.49 0.46 0.44 0.44 0.42 0.40 0.34 0.29 0.26 0.25 0.24 0.24 0.24 0.24 0.24 0.25 0.27 0.29 0.28 0.27 0.25 0.24 0.25 0.28 0.29 0.29 0.30 0.28 0.28 0.27 0.28 0.27 0.26 0.25
0.64 0.62 0.59 0.57 0.55 0.53 0.51 0.49 0.47 0.44 0.42 0.44 0.44 0.42 0.37 0.30 0.26 0.25 0.24 0.23 0.23 0.22 0.21 0.21 0.23 0.24 0.25 0.24 0.23 0.21 0.21 0.23 0.27 0.28 0.28 0.27 0.26 0.26 0.27 0.27 0.27 0.26
0.64 0.62 0.58 0.56 0.54 0.52 0.50 0.47 0.44 0.44 0.45 0.46 0.43 0.41 0.36 0.29 0.25 0.24 0.24 0.24 0.23 0.22 0.20 0.20 0.20 0.21 0.21 0.21 0.21 0.20 0.20 0.22 0.24 0.25 0.26 0.26 0.25 0.26 0.26 0.25 0.24 0.24
0.64 0.61 0.57 0.55 0.53 0.50 0.48 0.45 0.44 0.45 0.45 0.45 0.40 0.38 0.35 0.32 0.29 0.27 0.27 0.28 0.26 0.24 0.22 0.20 0.20 0.21 0.21 0.20 0.20 0.20 0.20 0.19 0.20 0.22 0.23 0.23 0.24 0.25 0.25 0.22 0.23 0.24
0.64 0.60 0.56 0.53 0.51 0.48 0.46 0.43 0.42 0.41 0.42 0.42 0.40 0.39 0.37 0.34 0.31 0.29 0.29 0.30 0.30 0.29 0.28 0.23 0.20 0.20 0.21 0.20 0.20 0.20 0.20 0.19 0.19 0.18 0.18 0.19 0.21 0.21 0.22 0.23 0.23 0.23
0.62 0.59 0.56 0.52 0.49 0.48 0.47 0.44 0.44 0.42 0.38 0.37 0.37 0.37 0.35 0.32 0.31 0.31 0.30 0.31 0.32 0.32 0.31 0.27 0.23 0.21 0.21 0.20 0.21 0.20 0.20 0.20 0.19 0.18 0.18 0.19 0.20 0.21 0.20 0.21 0.22 0.23

ECMWFNIL_prec_pwat_111.txt.gz
Precipitable_Water
1.26 1.20 1.13 1.07 1.01 0.96 0.92 0.91 0.91 0.86 0.84 0.83 0.80 0.78 0.75 0.72 0.70 0.67 0.67 0.66 0.64 0.62 0.60 0.58 0.56 0.53 0.50 0.48 0.47 0.45 0.43 0.42 0.41 0.41 0.38 0.36 0.34 0.32 0.32 0.33 0.33 0.33
1.19 1.16 1.12 1.06 1.00 1.00 1.01 1.00 0.94 0.86 0.81 0.79 0.78 0.76 0.74 0.72 0.71 0.68 0.66 0.63 0.61 0.59 0.58 0.56 0.54 0.51 0.49 0.46 0.46 0.43 0.42 0.41 0.39 0.41 0.37 0.35 0.34 0.33 0.33 0.33 0.33 0.33
1.17 1.13 1.09 1.06 1.06 1.06 1.04 1.00 0.96 0.91 0.85 0.81 0.79 0.76 0.73 0.71 0.68 0.66 0.64 0.61 0.57 0.55 0.55 0.53 0.51 0.49 0.47 0.45 0.44 0.42 0.40 0.39 0.38 0.40 0.37 0.35 0.35 0.34 0.34 0.34 0.32 0.29
1.18 1.16 1.14 1.12 1.10 1.06 1.04 0.99 0.96 0.92 0.86 0.78 0.74 0.73 0.70 0.68 0.65 0.62 0.60 0.58 0.54 0.53 0.52 0.50 0.49 0.48 0.46 0.45 0.43 0.41 0.40 0.39 0.40 0.39 0.37 0.37 0.36 0.35 0.33 0.31 0.29 0.27
1.20 1.18 1.15 1.11 1.08 1.06 1.01 0.96 0.90 0.86 0.81 0.75 0.72 0.69 0.66 0.63 0.60 0.58 0.56 0.54 0.52 0.50 0.49 0.48 0.48 0.47 0.46 0.44 0.42 0.39 0.39 0.39 0.41 0.40 0.37 0.35 0.35 0.33 0.31 0.28 0.26 0.24
1.18 1.15 1.12 1.08 1.04 0.99 0.94 0.88 0.84 0.82 0.77 0.71 0.68 0.66 0.63 0.60 0.57 0.55 0.53 0.51 0.50 0.48 0.47 0.46 0.45 0.44 0.43 0.42 0.41 0.40 0.40 0.40 0.41 0.39 0.35 0.32 0.31 0.30 0.28 0.27 0.25 0.23
1.11 1.10 1.07 1.05 0.99 0.94 0.88 0.84 0.82 0.80 0.74 0.70 0.67 0.63 0.60 0.56 0.54 0.53 0.51 0.49 0.47 0.46 0.44 0.43 0.42 0.42 0.43 0.42 0.41 0.40 0.41 0.41 0.39 0.35 0.32 0.29 0.27 0.26 0.26 0.25 0.24 0.22
1.09 1.08 1.05 1.00 0.94 0.89 0.85 0.83 0.81 0.76 0.71 0.67 0.63 0.61 0.58 0.53 0.52 0.51 0.50 0.48 0.45 0.44 0.43 0.43 0.42 0.42 0.42 0.42 0.40 0.41 0.41 0.41 0.36 0.31 0.28 0.26 0.26 0.24 0.25 0.24 0.23 0.21
1.08 1.04 1.01 0.96 0.91 0.87 0.83 0.81 0.78 0.72 0.69 0.63 0.60 0.58 0.57 0.53 0.50 0.49 0.47 0.46 0.44 0.43 0.43 0.42 0.42 0.42 0.43 0.42 0.41 0.41 0.40 0.38 0.33 0.29 0.27 0.25 0.24 0.25 0.25 0.25 0.22 0.21
1.04 1.01 0.97 0.93 0.89 0.86 0.83 0.80 0.75 0.70 0.67 0.62 0.59 0.57 0.54 0.52 0.48 0.46 0.45 0.44 0.43 0.42 0.42 0.43 0.43 0.42 0.42 0.43 0.42 0.41 0.37 0.33 0.29 0.29 0.28 0.27 0.26 0.26 0.25 0.25 0.23 0.21
1.02 0.99 0.94 0.90 0.86 0.84 0.80 0.76 0.72 0.68 0.65 0.60 0.57 0.53 0.50 0.46 0.43 0.42 0.41 0.41 0.41 0.42 0.42 0.42 0.42 0.42 0.42 0.42 0.42 0.40 0.35 0.31 0.30 0.29 0.29 0.29 0.29 0.28 0.27 0.26 0.25 0.23
1.01 0.95 0.89 0.85 0.82 0.80 0.77 0.73 0.70 0.67 0.63 0.60 0.56 0.51 0.47 0.42 0.38 0.38 0.39 0.39 0.41 0.41 0.41 0.41 0.41 0.43 0.43 0.42 0.39 0.36 0.34 0.32 0.32 0.31 0.30 0.30 0.29 0.29 0.28 0.27 0.26 0.24
0.95 0.91 0.87 0.82 0.79 0.77 0.75 0.72 0.69 0.67 0.62 0.57 0.54 0.51 0.44 0.38 0.36 0.36 0.38 0.38 0.39 0.40 0.40 0.40 0.42 0.43 0.41 0.39 0.36 0.35 0.33 0.32 0.32 0.31 0.30 0.30 0.30 0.29 0.29 0.28 0.27 0.26
0.93 0.90 0.86 0.82 0.78 0.75 0.72 0.71 0.69 0.65 0.60 0.56 0.52 0.45 0.39 0.36 0.35 0.35 0.36 0.37 0.38 0.39 0.40 0.42 0.42 0.40 0.38 0.36 0.35 0.34 0.32 0.32 0.31 0.30 0.30 0.30 0.30 0.29 0.29 0.29 0.28 0.27
0.92 0.89 0.85 0.82 0.78 0.74 0.71 0.70 0.68 0.63 0.58 0.53 0.47 0.40 0.38 0.37 0.36 0.35 0.34 0.35 0.37 0.38 0.40 0.41 0.40 0.37 0.36 0.36 0.34 0.33 0.33 0.31 0.30 0.30 0.30 0.28 0.29 0.29 0.29 0.29 0.28 0.27
0.90 0.86 0.83 0.80 0.77 0.73 0.71 0.70 0.67 0.61 0.56 0.51 0.44 0.38 0.37 0.37 0.36 0.35 0.34 0.34 0.35 0.37 0.39 0.39 0.37 0.37 0.37 0.36 0.35 0.33 0.32 0.31 0.30 0.30 0.29 0.28 0.28 0.28 0.28 0.28 0.27 0.25
0.88 0.83 0.79 0.76 0.75 0.73 0.71 0.69 0.65 0.59 0.53 0.48 0.42 0.37 0.36 0.36 0.35 0.33 0.33 0.34 0.35 0.36 0.36 0.35 0.35 0.36 0.36 0.35 0.34 0.33 0.31 0.30 0.29 0.28 0.28 0.27 0.27 0.27 0.26 0.26 0.26 0.24
0.87 0.82 0.78 0.76 0.76 0.73 0.71 0.68 0.62 0.55 0.49 0.44 0.39 0.36 0.35 0.35 0.33 0.32 0.33 0.34 0.35 0.35 0.33 0.33 0.34 0.35 0.34 0.33 0.32 0.32 0.32 0.31 0.30 0.29 0.28 0.26 0.27 0.27 0.27 0.26 0.25 0.23
0.85 0.80 0.77 0.77 0.76 0.73 0.70 0.65 0.58 0.51 0.46 0.41 0.36 0.35 0.34 0.33 0.32 0.32 0.33 0.35 0.34 0.32 0.31 0.33 0.33 0.33 0.32 0.32 0.32 0.32 0.32 0.31 0.30 0.30 0.28 0.28 0.27 0.27 0.26 0.26 0.25 0.23
0.84 0.79 0.77 0.77 0.75 0.71 0.67 0.62 0.55 0.48 0.45 0.41 0.37 0.34 0.32 0.31 0.32 0.32 0.33 0.33 0.32 0.31 0.31 0.32 0.31 0.32 0.31 0.31 0.31 0.31 0.31 0.31 0.30 0.29 0.29 0.28 0.27 0.27 0.26 0.25 0.25 0.23
0.82 0.79 0.77 0.76 0.73 0.70 0.66 0.60 0.53 0.49 0.46 0.43 0.36 0.33 0.31 0.31 0.31 0.32 0.33 0.32 0.31 0.31 0.31 0.30 0.30 0.30 0.29 0.28 0.28 0.29 0.30 0.30 0.30 0.29 0.29 0.28 0.28 0.27 0.27 0.26 0.26 0.24
0.82 0.79 0.77 0.74 0.71 0.69 0.65 0.59 0.54 0.50 0.47 0.43 0.37 0.33 0.33 0.33 0.33 0.33 0.30 0.30 0.31 0.31 0.29 0.28 0.29 0.29 0.27 0.26 0.24 0.23 0.25 0.27 0.29 0.28 0.27 0.27 0.27 0.27 0.27 0.26 0.24 0.24
0.83 0.79 0.74 0.70 0.69 0.68 0.64 0.59 0.54 0.51 0.49 0.45 0.36 0.32 0.31 0.31 0.31 0.29 0.29 0.28 0.28 0.28 0.27 0.26 0.26 0.26 0.24 0.22 0.22 0.23 0.24 0.25 0.26 0.27 0.26 0.26 0.26 0.26 0.26 0.24 0.23 0.25
0.82 0.75 0.70 0.68 0.68 0.66 0.64 0.59 0.55 0.52 0.48 0.44 0.36 0.31 0.30 0.30 0.29 0.26 0.27 0.26 0.24 0.24 0.23 0.22 0.22 0.23 0.23 0.22 0.23 0.23 0.23 0.23 0.24 0.24 0.25 0.25 0.25 0.25 0.25 0.22 0.24 0.26
0.79 0.73 0.70 0.68 0.67 0.67 0.64 0.58 0.54 0.50 0.48 0.45 0.38 0.33 0.31 0.30 0.28 0.26 0.26 0.25 0.24 0.24 0.24 0.22 0.22 0.23 0.23 0.23 0.23 0.23 0.22 0.22 0.22 0.22 0.22 0.23 0.23 0.23 0.23 0.23 0.23 0.24
0.78 0.74 0.71 0.69 0.67 0.66 0.63 0.57 0.53 0.49 0.47 0.46 0.41 0.34 0.31 0.30 0.29 0.29 0.28 0.27 0.27 0.26 0.24 0.23 0.22 0.23 0.24 0.24 0.23 0.23 0.22 0.22 0.22 0.20 0.19 0.19 0.21 0.21 0.20 0.22 0.23 0.23

ECMWFNIL_prec_pwat_114.txt.gz
Precipitable_Water
1.34 1.30 1.25 1.22 1.20 1.18 1.12 1.05 0.98 0.91 0.85 0.82 0.81 0.82 0.80 0.79 0.79 0.76 0.73 0.70 0.67 0.65 0.64 0.60 0.57 0.54 0.51 0.48 0.45 0.41 0.38 0.36 0.34 0.33 0.32 0.32 0.32 0.32 0.31 0.30 0.29 0.28
1.31 1.26 1.23 1.21 1.18 1.13 1.08 1.02 0.95 0.89 0.84 0.84 0.86 0.84 0.82 0.80 0.79 0.75 0.70 0.67 0.66 0.64 0.62 0.59 0.55 0.52 0.49 0.46 0.43 0.39 0.37 0.35 0.33 0.34 0.32 0.32 0.32 0.32 0.31 0.30 0.29 0.27
1.28 1.25 1.22 1.18 1.13 1.08 1.04 1.00 0.95 0.91 0.90 0.91 0.88 0.85 0.82 0.80 0.74 0.71 0.68 0.66 0.63 0.61 0.59 0.56 0.53 0.50 0.48 0.45 0.43 0.39 0.35 0.33 0.32 0.33 0.32 0.32 0.33 0.32 0.32 0.30 0.27 0.25
1.26 1.24 1.20 1.16 1.12 1.07 1.05 1.01 0.99 0.98 0.95 0.90 0.87 0.83 0.78 0.73 0.70 0.67 0.65 0.63 0.60 0.58 0.56 0.53 0.51 0.49 0.47 0.44 0.41 0.38 0.36 0.34 0.34 0.34 0.33 0.34 0.34 0.33 0.30 0.27 0.25 0.24
1.24 1.21 1.19 1.15 1.13 1.11 1.08 1.05 1.01 0.97 0.93 0.88 0.83 0.77 0.72 0.68 0.66 0.64 0.62 0.60 0.58 0.55 0.53 0.51 0.50 0.47 0.45 0.42 0.40 0.37 0.36 0.34 0.34 0.34 0.34 0.34 0.34 0.30 0.27 0.25 0.23 0.21
1.25 1.23 1.20 1.18 1.15 1.11 1.07 1.04 0.99 0.94 0.88 0.82 0.78 0.73 0.69 0.67 0.64 0.62 0.60 0.57 0.55 0.53 0.51 0.49 0.47 0.45 0.43 0.41 0.40 0.37 0.35 0.33 0.34 0.34 0.33 0.32 0.29 0.27 0.25 0.23 0.21 0.20
1.22 1.21 1.20 1.18 1.13 1.10 1.07 1.02 0.96 0.89 0.84 0.81 0.77 0.70 0.67 0.64 0.62 0.60 0.58 0.56 0.53 0.51 0.48 0.47 0.45 0.43 0.43 0.41 0.39 0.36 0.34 0.33 0.34 0.33 0.31 0.29 0.27 0.25 0.24 0.22 0.21 0.20
1.22 1.23 1.20 1.15 1.11 1.08 1.04 0.99 0.92 0.86 0.83 0.80 0.72 0.67 0.65 0.62 0.60 0.58 0.56 0.53 0.50 0.48 0.47 0.46 0.44 0.43 0.43 0.42 0.37 0.34 0.33 0.34 0.33 0.32 0.29 0.27 0.26 0.24 0.23 0.22 0.21 0.20
1.23 1.19 1.15 1.12 1.08 1.06 1.01 0.96 0.89 0.85 0.83 0.76 0.69 0.65 0.65 0.61 0.58 0.56 0.53 0.51 0.49 0.47 0.46 0.44 0.43 0.43 0.43 0.41 0.37 0.34 0.33 0.33 0.33 0.30 0.27 0.26 0.24 0.24 0.24 0.23 0.21 0.20
1.18 1.16 1.12 1.09 1.05 1.02 0.97 0.92 0.88 0.85 0.81 0.73 0.67 0.65 0.62 0.60 0.57 0.54 0.52 0.50 0.47 0.46 0.44 0.43 0.43 0.43 0.42 0.40 0.38 0.36 0.34 0.33 0.31 0.29 0.28 0.27 0.26 0.25 0.25 0.23 0.21 0.19
1.14 1.12 1.09 1.06 1.03 0.99 0.94 0.90 0.87 0.83 0.76 0.69 0.66 0.64 0.61 0.58 0.55 0.53 0.50 0.49 0.46 0.44 0.43 0.43 0.43 0.42 0.40 0.40 0.40 0.38 0.35 0.32 0.31 0.30 0.29 0.28 0.27 0.26 0.26 0.24 0.22 0.19
1.11 1.09 1.07 1.05 1.01 0.95 0.90 0.88 0.84 0.78 0.71 0.67 0.66 0.63 0.59 0.55 0.52 0.51 0.50 0.48 0.46 0.45 0.44 0.43 0.42 0.41 0.41 0.41 0.40 0.37 0.34 0.33 0.33 0.31 0.31 0.29 0.29 0.28 0.27 0.25 0.22 0.20
1.09 1.08 1.06 1.02 0.97 0.93 0.89 0.84 0.79 0.73 0.68 0.65 0.65 0.62 0.56 0.50 0.50 0.50 0.50 0.47 0.46 0.45 0.43 0.42 0.41 0.42 0.42 0.41 0.40 0.36 0.34 0.33 0.32 0.32 0.31 0.30 0.30 0.29 0.28 0.26 0.24 0.21
1.07 1.07 1.04 1.00 0.96 0.91 0.86 0.81 0.76 0.70 0.66 0.65 0.63 0.58 0.52 0.47 0.47 0.48 0.48 0.46 0.45 0.44 0.44 0.43 0.42 0.42 0.42 0.41 0.38 0.36 0.35 0.33 0.32 0.31 0.30 0.30 0.30 0.29 0.29 0.27 0.24 0.23
1.07 1.05 1.01 0.98 0.93 0.87 0.82 0.77 0.73 0.69 0.66 0.64 0.62 0.57 0.50 0.45 0.46 0.46 0.44 0.43 0.43 0.43 0.43 0.43 0.43 0.42 0.42 0.39 0.36 0.35 0.35 0.33 0.32 0.31 0.30 0.29 0.29 0.29 0.28 0.27 0.25 0.24
1.07 1.04 0.99 0.95 0.89 0.83 0.78 0.75 0.72 0.69 0.66 0.63 0.59 0.53 0.46 0.44 0.44 0.44 0.42 0.41 0.41 0.42 0.43 0.43 0.43 0.43 0.41 0.38 0.37 0.35 0.33 0.33 0.32 0.31 0.29 0.29 0.28 0.27 0.27 0.26 0.25 0.23
1.05 1.01 0.96 0.90 0.85 0.80 0.77 0.73 0.71 0.69 0.65 0.60 0.54 0.48 0.43 0.42 0.42 0.40 0.40 0.40 0.41 0.41 0.41 0.42 0.42 0.42 0.39 0.38 0.37 0.35 0.34 0.32 0.31 0.29 0.29 0.28 0.27 0.27 0.25 0.25 0.25 0.23
1.02 0.97 0.92 0.87 0.83 0.79 0.75 0.73 0.70 0.67 0.62 0.57 0.51 0.45 0.43 0.41 0.39 0.39 0.39 0.40 0.41 0.42 0.42 0.42 0.41 0.40 0.39 0.38 0.37 0.36 0.34 0.32 0.30 0.29 0.28 0.28 0.28 0.27 0.26 0.25 0.24 0.22
0.98 0.94 0.90 0.86 0.82 0.79 0.75 0.72 0.68 0.65 0.62 0.57 0.50 0.44 0.41 0.39 0.38 0.38 0.38 0.40 0.41 0.41 0.41 0.41 0.39 0.39 0.38 0.38 0.36 0.35 0.33 0.32 0.31 0.31 0.29 0.28 0.28 0.27 0.26 0.25 0.25 0.23
0.96 0.93 0.89 0.86 0.82 0.79 0.75 0.70 0.67 0.64 0.62 0.58 0.51 0.44 0.40 0.38 0.38 0.37 0.38 0.39 0.40 0.41 0.41 0.39 0.37 0.37 0.37 0.36 0.35 0.34 0.34 0.33 0.32 0.31 0.30 0.30 0.29 0.28 0.27 0.26 0.25 0.22
0.95 0.93 0.90 0.87 0.82 0.78 0.74 0.70 0.67 0.65 0.62 0.56 0.49 0.42 0.38 0.37 0.36 0.36 0.37 0.39 0.40 0.41 0.39 0.36 0.35 0.36 0.35 0.35 0.34 0.34 0.33 0.32 0.31 0.31 0.30 0.30 0.29 0.29 0.28 0.27 0.26 0.23
0.95 0.94 0.91 0.87 0.81 0.77 0.73 0.70 0.67 0.64 0.61 0.56 0.48 0.42 0.40 0.39 0.38 0.38 0.37 0.38 0.40 0.40 0.36 0.33 0.34 0.34 0.34 0.33 0.33 0.32 0.32 0.31 0.31 0.30 0.29 0.29 0.28 0.29 0.28 0.27 0.25 0.25
0.97 0.95 0.91 0.87 0.82 0.77 0.73 0.71 0.68 0.66 0.62 0.55 0.46 0.41 0.38 0.37 0.36 0.36 0.38 0.38 0.38 0.37 0.33 0.31 0.31 0.32 0.31 0.30 0.28 0.27 0.27 0.28 0.29 0.29 0.28 0.28 0.27 0.28 0.27 0.26 0.25 0.26
0.98 0.96 0.92 0.87 0.83 0.76 0.73 0.71 0.67 0.64 0.59 0.54 0.45 0.39 0.36 0.36 0.36 0.36 0.38 0.39 0.37 0.34 0.32 0.29 0.29 0.30 0.28 0.26 0.26 0.26 0.27 0.27 0.27 0.27 0.27 0.27 0.27 0.27 0.27 0.25 0.25 0.26
0.97 0.95 0.91 0.88 0.82 0.79 0.75 0.70 0.66 0.61 0.58 0.55 0.48 0.41 0.37 0.37 0.36 0.36 0.37 0.38 0.36 0.33 0.32 0.28 0.26 0.27 0.27 0.26 0.26 0.26 0.27 0.27 0.26 0.26 0.25 0.25 0.26 0.26 0.26 0.24 0.24 0.25
1.01 0.99 0.94 0.87 0.82 0.80 0.75 0.70 0.65 0.60 0.58 0.55 0.49 0.42 0.37 0.36 0.35 0.34 0.34 0.34 0.33 0.30 0.28 0.26 0.25 0.26 0.27 0.27 0.26 0.26 0.26 0.25 0.26 0.24 0.23 0.24 0.25 0.24 0.23 0.22 0.24 0.24

ECMWFNIL_prec_pwat_117.txt.gz
Precipitable_Water
1.39 1.34 1.31 1.28 1.27 1.25 1.21 1.18 1.15 1.09 1.04 0.99 0.91 0.86 0.82 0.81 0.81 0.77 0.73 0.71 0.69 0.65 0.63 0.60 0.56 0.52 0.49 0.46 0.43 0.41 0.39 0.38 0.36 0.35 0.33 0.31 0.30 0.29 0.29 0.31 0.32 0.32
1.33 1.32 1.31 1.29 1.26 1.24 1.22 1.19 1.13 1.07 1.02 0.96 0.90 0.85 0.82 0.80 0.79 0.76 0.73 0.70 0.67 0.64 0.61 0.57 0.53 0.49 0.45 0.43 0.42 0.39 0.37 0.35 0.34 0.34 0.32 0.31 0.30 0.31 0.32 0.32 0.32 0.30
1.31 1.31 1.30 1.25 1.23 1.21 1.19 1.17 1.12 1.05 0.98 0.93 0.88 0.82 0.79 0.81 0.78 0.77 0.73 0.68 0.65 0.62 0.59 0.55 0.51 0.48 0.45 0.42 0.40 0.38 0.36 0.34 0.33 0.34 0.32 0.31 0.33 0.33 0.33 0.31 0.28 0.25
1.30 1.32 1.28 1.25 1.22 1.19 1.17 1.13 1.07 1.01 0.95 0.89 0.84 0.84 0.82 0.80 0.77 0.72 0.68 0.66 0.64 0.60 0.57 0.54 0.50 0.47 0.43 0.40 0.38 0.37 0.36 0.35 0.35 0.34 0.33 0.34 0.34 0.33 0.30 0.27 0.25 0.25
1.29 1.28 1.27 1.24 1.22 1.19 1.15 1.09 1.02 0.97 0.93 0.92 0.89 0.86 0.81 0.76 0.70 0.67 0.66 0.65 0.62 0.58 0.55 0.52 0.49 0.44 0.42 0.39 0.38 0.36 0.35 0.35 0.35 0.34 0.34 0.34 0.33 0.30 0.27 0.26 0.25 0.24
1.30 1.28 1.25 1.22 1.20 1.16 1.11 1.06 1.03 1.00 0.97 0.92 0.87 0.83 0.76 0.71 0.68 0.66 0.64 0.62 0.60 0.57 0.53 0.50 0.46 0.43 0.41 0.39 0.37 0.36 0.36 0.34 0.35 0.35 0.33 0.31 0.29 0.27 0.27 0.26 0.24 0.23
1.27 1.24 1.22 1.21 1.17 1.15 1.12 1.09 1.06 1.01 0.96 0.90 0.84 0.78 0.72 0.69 0.67 0.64 0.62 0.60 0.58 0.54 0.51 0.47 0.44 0.42 0.41 0.38 0.36 0.36 0.35 0.35 0.35 0.34 0.32 0.29 0.27 0.26 0.26 0.26 0.24 0.23
1.25 1.24 1.22 1.20 1.17 1.16 1.13 1.09 1.05 1.00 0.95 0.88 0.80 0.75 0.70 0.67 0.65 0.63 0.61 0.59 0.56 0.52 0.49 0.46 0.44 0.42 0.40 0.38 0.35 0.35 0.34 0.36 0.36 0.34 0.31 0.29 0.27 0.25 0.24 0.25 0.25 0.23
1.24 1.22 1.20 1.18 1.17 1.16 1.11 1.08 1.03 0.98 0.93 0.85 0.79 0.72 0.70 0.67 0.64 0.62 0.60 0.57 0.54 0.50 0.47 0.45 0.44 0.42 0.40 0.37 0.36 0.35 0.34 0.36 0.36 0.33 0.30 0.29 0.27 0.24 0.24 0.25 0.24 0.24
1.20 1.20 1.17 1.18 1.16 1.14 1.09 1.05 1.01 0.96 0.91 0.84 0.77 0.70 0.67 0.67 0.65 0.62 0.58 0.55 0.51 0.48 0.46 0.45 0.44 0.42 0.39 0.38 0.37 0.36 0.36 0.36 0.34 0.33 0.32 0.30 0.27 0.25 0.24 0.24 0.24 0.23
1.17 1.17 1.16 1.17 1.14 1.12 1.07 1.03 0.99 0.93 0.89 0.82 0.73 0.68 0.66 0.65 0.63 0.61 0.57 0.53 0.49 0.46 0.45 0.45 0.44 0.42 0.39 0.38 0.38 0.38 0.38 0.36 0.34 0.33 0.32 0.30 0.28 0.26 0.25 0.25 0.24 0.24
1.16 1.16 1.16 1.15 1.13 1.10 1.06 1.01 0.96 0.91 0.86 0.79 0.71 0.66 0.64 0.63 0.60 0.58 0.55 0.51 0.48 0.46 0.46 0.46 0.45 0.43 0.41 0.39 0.38 0.39 0.39 0.36 0.35 0.34 0.33 0.31 0.30 0.28 0.26 0.26 0.25 0.25
1.15 1.15 1.15 1.14 1.11 1.08 1.05 0.99 0.94 0.89 0.83 0.74 0.69 0.65 0.62 0.61 0.59 0.56 0.54 0.50 0.48 0.47 0.47 0.46 0.46 0.44 0.42 0.40 0.40 0.40 0.38 0.36 0.35 0.34 0.33 0.32 0.31 0.28 0.27 0.26 0.26 0.27
1.15 1.15 1.14 1.12 1.10 1.07 1.03 0.97 0.92 0.87 0.79 0.72 0.68 0.65 0.64 0.60 0.56 0.54 0.52 0.50 0.48 0.48 0.48 0.48 0.46 0.44 0.42 0.42 0.41 0.40 0.37 0.36 0.36 0.34 0.33 0.32 0.31 0.29 0.28 0.27 0.27 0.27
1.14 1.13 1.12 1.10 1.08 1.05 1.00 0.94 0.89 0.83 0.76 0.70 0.68 0.67 0.64 0.60 0.57 0.54 0.51 0.48 0.48 0.48 0.48 0.48 0.46 0.43 0.43 0.43 0.41 0.38 0.38 0.36 0.36 0.34 0.33 0.31 0.30 0.29 0.29 0.28 0.27 0.27
1.12 1.11 1.09 1.08 1.05 1.02 0.97 0.92 0.87 0.80 0.73 0.69 0.68 0.66 0.62 0.58 0.56 0.54 0.51 0.48 0.47 0.48 0.48 0.47 0.45 0.45 0.44 0.44 0.41 0.38 0.37 0.37 0.36 0.35 0.33 0.31 0.29 0.29 0.29 0.29 0.27 0.27
1.10 1.08 1.07 1.05 1.04 1.00 0.96 0.90 0.83 0.77 0.71 0.68 0.66 0.64 0.61 0.57 0.55 0.52 0.49 0.48 0.47 0.47 0.46 0.45 0.45 0.45 0.44 0.44 0.40 0.38 0.38 0.37 0.36 0.34 0.33 0.31 0.30 0.29 0.28 0.29 0.28 0.26
1.08 1.07 1.05 1.04 1.03 0.99 0.94 0.87 0.81 0.73 0.69 0.67 0.65 0.63 0.61 0.57 0.53 0.51 0.49 0.48 0.48 0.47 0.46 0.45 0.45 0.45 0.45 0.43 0.39 0.37 0.37 0.37 0.36 0.33 0.32 0.31 0.30 0.29 0.29 0.29 0.28 0.26
1.07 1.05 1.04 1.04 1.03 0.99 0.93 0.86 0.77 0.70 0.67 0.66 0.64 0.62 0.59 0.54 0.52 0.51 0.48 0.48 0.47 0.46 0.45 0.45 0.45 0.46 0.45 0.42 0.39 0.38 0.37 0.36 0.35 0.33 0.31 0.31 0.30 0.30 0.30 0.29 0.28 0.25
1.07 1.05 1.04 1.04 1.03 0.98 0.91 0.83 0.75 0.70 0.68 0.67 0.64 0.60 0.55 0.53 0.53 0.51 0.49 0.47 0.46 0.45 0.44 0.44 0.45 0.46 0.45 0.42 0.40 0.38 0.37 0.35 0.35 0.34 0.33 0.32 0.31 0.31 0.30 0.30 0.27 0.25
1.08 1.07 1.07 1.06 1.03 0.97 0.88 0.80 0.74 0.71 0.69 0.67 0.62 0.55 0.52 0.51 0.52 0.52 0.49 0.47 0.46 0.46 0.44 0.43 0.46 0.46 0.44 0.41 0.40 0.38 0.37 0.36 0.36 0.35 0.33 0.33 0.33 0.32 0.31 0.30 0.28 0.26
1.07 1.06 1.05 1.03 1.00 0.93 0.85 0.78 0.75 0.72 0.69 0.66 0.62 0.57 0.55 0.55 0.55 0.54 0.50 0.46 0.45 0.45 0.43 0.43 0.45 0.46 0.43 0.41 0.39 0.38 0.37 0.36 0.36 0.34 0.33 0.33 0.33 0.32 0.32 0.30 0.28 0.27
1.03 1.03 1.03 1.01 0.93 0.90 0.83 0.78 0.74 0.72 0.69 0.66 0.61 0.56 0.53 0.54 0.55 0.54 0.50 0.45 0.43 0.43 0.42 0.43 0.44 0.44 0.42 0.39 0.37 0.37 0.36 0.35 0.34 0.34 0.33 0.33 0.32 0.32 0.31 0.30 0.28 0.29
1.11 1.12 1.07 1.01 0.96 0.89 0.82 0.78 0.75 0.72 0.68 0.66 0.59 0.55 0.54 0.54 0.53 0.53 0.50 0.45 0.42 0.41 0.42 0.42 0.43 0.42 0.39 0.37 0.36 0.35 0.35 0.33 0.33 0.32 0.32 0.32 0.32 0.32 0.31 0.30 0.29 0.27
1.08 1.07 1.06 1.06 1.00 0.93 0.86 0.79 0.75 0.73 0.71 0.66 0.61 0.57 0.53 0.53 0.53 0.51 0.48 0.45 0.43 0.42 0.43 0.43 0.42 0.40 0.37 0.35 0.34 0.32 0.31 0.32 0.31 0.31 0.30 0.31 0.30 0.30 0.30 0.29 0.28 0.27
1.06 1.06 1.04 1.03 0.99 0.96 0.90 0.82 0.77 0.74 0.71 0.66 0.62 0.57 0.54 0.54 0.53 0.50 0.47 0.44 0.43 0.43 0.43 0.44 0.42 0.38 0.35 0.31 0.29 0.29 0.30 0.31 0.31 0.30 0.29 0.29 0.30 0.29 0.28 0.28 0.27 0.27

ECMWFNIL_prec_pwat_123.txt.gz
Precipitable_Water
1.37 1.35 1.35 1.33 1.33 1.35 1.35 1.34 1.35 1.32 1.30 1.25 1.18 1.13 1.07 1.06 1.00 0.95 0.90 0.81 0.73 0.68 0.68 0.68 0.65 0.63 0.59 0.56 0.53 0.49 0.46 0.43 0.40 0.40 0.39 0.39 0.39 0.39 0.37 0.38 0.40 0.39
1.33 1.34 1.34 1.33 1.33 1.35 1.36 1.36 1.33 1.30 1.27 1.23 1.18 1.15 1.11 1.05 1.00 0.93 0.86 0.76 0.69 0.68 0.68 0.67 0.64 0.59 0.57 0.55 0.52 0.47 0.43 0.41 0.38 0.39 0.38 0.38 0.37 0.38 0.38 0.39 0.38 0.37
1.31 1.31 1.31 1.31 1.30 1.32 1.35 1.36 1.34 1.32 1.28 1.21 1.18 1.15 1.12 1.05 0.98 0.93 0.83 0.75 0.70 0.67 0.67 0.66 0.61 0.58 0.56 0.53 0.49 0.45 0.42 0.40 0.39 0.41 0.41 0.39 0.39 0.39 0.40 0.40 0.38 0.35
1.30 1.31 1.30 1.30 1.32 1.34 1.37 1.34 1.33 1.32 1.28 1.21 1.17 1.16 1.10 1.05 1.00 0.91 0.84 0.76 0.68 0.66 0.68 0.63 0.58 0.56 0.53 0.52 0.50 0.46 0.43 0.42 0.41 0.41 0.40 0.41 0.41 0.42 0.41 0.40 0.36 0.33
1.32 1.33 1.34 1.33 1.35 1.36 1.34 1.32 1.31 1.29 1.25 1.21 1.17 1.13 1.07 1.02 0.95 0.89 0.80 0.73 0.69 0.68 0.64 0.59 0.56 0.56 0.53 0.51 0.49 0.44 0.43 0.40 0.41 0.41 0.40 0.39 0.40 0.40 0.39 0.37 0.34 0.32
1.34 1.35 1.34 1.34 1.32 1.30 1.30 1.30 1.30 1.28 1.22 1.19 1.17 1.11 1.06 0.99 0.92 0.82 0.75 0.71 0.70 0.66 0.60 0.57 0.56 0.53 0.53 0.50 0.46 0.44 0.42 0.41 0.41 0.41 0.39 0.39 0.40 0.40 0.38 0.37 0.36 0.35
1.32 1.33 1.32 1.33 1.31 1.31 1.28 1.26 1.25 1.24 1.21 1.20 1.15 1.09 1.04 0.93 0.84 0.78 0.74 0.72 0.68 0.62 0.58 0.56 0.54 0.53 0.52 0.49 0.47 0.44 0.43 0.40 0.40 0.40 0.40 0.41 0.41 0.39 0.37 0.35 0.33 0.32
1.32 1.34 1.32 1.31 1.29 1.27 1.24 1.22 1.21 1.21 1.21 1.16 1.09 1.06 0.97 0.88 0.82 0.79 0.76 0.72 0.66 0.60 0.57 0.55 0.54 0.53 0.51 0.49 0.47 0.44 0.41 0.40 0.40 0.39 0.39 0.39 0.41 0.38 0.37 0.36 0.35 0.33
1.31 1.29 1.29 1.26 1.23 1.22 1.19 1.19 1.21 1.21 1.19 1.12 1.06 1.01 0.93 0.88 0.84 0.80 0.75 0.69 0.63 0.59 0.58 0.55 0.55 0.52 0.51 0.50 0.47 0.42 0.39 0.40 0.40 0.41 0.41 0.40 0.38 0.37 0.35 0.35 0.35 0.34
1.25 1.25 1.24 1.22 1.18 1.17 1.16 1.18 1.20 1.19 1.15 1.09 1.04 0.98 0.92 0.91 0.87 0.79 0.74 0.68 0.63 0.61 0.58 0.57 0.54 0.51 0.51 0.49 0.45 0.43 0.41 0.40 0.40 0.40 0.42 0.42 0.39 0.37 0.36 0.36 0.36 0.34
1.21 1.22 1.20 1.18 1.15 1.15 1.16 1.18 1.19 1.17 1.13 1.06 1.02 0.97 0.95 0.92 0.86 0.80 0.73 0.68 0.64 0.60 0.58 0.56 0.53 0.51 0.50 0.48 0.47 0.44 0.43 0.41 0.40 0.41 0.42 0.42 0.41 0.39 0.38 0.38 0.38 0.36
1.20 1.20 1.19 1.18 1.16 1.15 1.16 1.18 1.20 1.16 1.11 1.06 1.04 0.99 0.96 0.92 0.84 0.78 0.72 0.69 0.64 0.61 0.59 0.57 0.52 0.50 0.49 0.48 0.46 0.44 0.43 0.43 0.42 0.42 0.43 0.42 0.40 0.39 0.39 0.39 0.38 0.36
1.18 1.18 1.20 1.19 1.17 1.17 1.18 1.19 1.18 1.15 1.11 1.07 1.05 1.00 0.97 0.90 0.82 0.77 0.74 0.70 0.65 0.63 0.60 0.55 0.51 0.51 0.50 0.49 0.46 0.45 0.45 0.44 0.42 0.42 0.42 0.42 0.41 0.40 0.40 0.40 0.39 0.36
1.17 1.20 1.19 1.18 1.18 1.19 1.19 1.18 1.17 1.16 1.13 1.09 1.05 1.00 0.96 0.88 0.80 0.78 0.74 0.71 0.67 0.65 0.61 0.56 0.53 0.52 0.51 0.49 0.47 0.46 0.46 0.45 0.45 0.44 0.44 0.42 0.41 0.41 0.41 0.40 0.39 0.35
1.19 1.20 1.20 1.20 1.19 1.19 1.17 1.17 1.17 1.17 1.13 1.09 1.05 1.02 0.94 0.87 0.82 0.78 0.73 0.70 0.69 0.66 0.61 0.57 0.54 0.53 0.53 0.50 0.48 0.47 0.47 0.46 0.46 0.46 0.45 0.42 0.40 0.40 0.42 0.41 0.38 0.34
1.19 1.17 1.17 1.18 1.18 1.16 1.16 1.17 1.18 1.16 1.12 1.07 1.04 1.00 0.92 0.87 0.81 0.79 0.73 0.71 0.69 0.65 0.63 0.59 0.56 0.56 0.55 0.51 0.51 0.49 0.47 0.47 0.49 0.49 0.46 0.43 0.41 0.40 0.40 0.39 0.35 0.32
1.16 1.15 1.16 1.15 1.15 1.16 1.17 1.17 1.16 1.13 1.11 1.06 1.03 0.99 0.91 0.87 0.81 0.79 0.74 0.74 0.71 0.66 0.65 0.61 0.59 0.59 0.53 0.51 0.51 0.50 0.50 0.50 0.50 0.49 0.49 0.46 0.43 0.41 0.40 0.39 0.33 0.28
1.15 1.16 1.15 1.14 1.14 1.13 1.14 1.16 1.15 1.13 1.09 1.05 1.02 0.98 0.91 0.86 0.80 0.79 0.75 0.76 0.73 0.69 0.66 0.63 0.62 0.59 0.55 0.51 0.51 0.50 0.52 0.54 0.52 0.52 0.51 0.48 0.45 0.43 0.41 0.41 0.40 0.38
1.16 1.15 1.14 1.12 1.13 1.11 1.13 1.13 1.10 1.10 1.08 1.04 1.01 1.00 0.92 0.86 0.80 0.80 0.75 0.77 0.73 0.71 0.68 0.65 0.66 0.59 0.57 0.51 0.51 0.50 0.52 0.54 0.56 0.55 0.53 0.49 0.48 0.47 0.45 0.42 0.41 0.39
1.14 1.14 1.12 1.11 1.09 1.10 1.13 1.10 1.09 1.08 1.07 1.04 1.03 1.01 0.95 0.90 0.84 0.80 0.78 0.76 0.73 0.72 0.70 0.67 0.67 0.61 0.57 0.51 0.50 0.50 0.51 0.52 0.60 0.56 0.55 0.51 0.49 0.48 0.47 0.46 0.43 0.42
1.11 1.10 1.08 1.08 1.09 1.11 1.12 1.10 1.08 1.06 1.02 1.00 1.00 0.99 0.95 0.90 0.84 0.81 0.80 0.77 0.74 0.73 0.71 0.69 0.69 0.62 0.56 0.50 0.48 0.50 0.50 0.53 0.59 0.58 0.55 0.54 0.50 0.50 0.48 0.46 0.44 0.45
1.10 1.08 1.08 1.09 1.10 1.11 1.10 1.08 1.06 1.04 1.01 1.03 1.03 1.03 0.99 0.94 0.87 0.83 0.81 0.80 0.78 0.75 0.73 0.72 0.71 0.64 0.55 0.50 0.46 0.48 0.51 0.55 0.57 0.57 0.55 0.54 0.50 0.48 0.47 0.48 0.43 0.44
1.12 1.10 1.09 1.10 1.11 1.09 1.07 1.08 1.07 1.03 1.02 1.03 1.01 1.01 0.97 0.92 0.87 0.84 0.85 0.82 0.79 0.76 0.75 0.75 0.71 0.66 0.58 0.52 0.48 0.47 0.51 0.54 0.57 0.58 0.54 0.55 0.50 0.48 0.47 0.47 0.42 0.43
1.14 1.12 1.10 1.11 1.11 1.08 1.08 1.08 1.07 1.05 1.04 1.06 1.04 1.01 0.95 0.91 0.90 0.86 0.82 0.81 0.78 0.75 0.76 0.76 0.73 0.70 0.63 0.58 0.54 0.51 0.51 0.52 0.55 0.59 0.55 0.55 0.53 0.49 0.47 0.49 0.44 0.43
1.14 1.13 1.12 1.11 1.10 1.08 1.07 1.05 1.04 1.03 1.04 1.04 1.00 0.99 0.94 0.90 0.89 0.81 0.84 0.82 0.79 0.76 0.77 0.74 0.73 0.69 0.63 0.58 0.56 0.52 0.48 0.49 0.55 0.59 0.55 0.54 0.52 0.48 0.47 0.49 0.44 0.39
1.13 1.11 1.11 1.11 1.10 1.08 1.08 1.06 1.05 1.02 1.01 1.00 0.99 0.96 0.92 0.91 0.86 0.83 0.79 0.77 0.79 0.76 0.75 0.72 0.78 0.72 0.66 0.60 0.56 0.53 0.49 0.49 0.58 0.59 0.56 0.55 0.52 0.49 0.43 0.47 0.45 0.34

ECMWFNIL_prec_pwat_129.txt.gz
Precipitable_Water
1.33 1.34 1.32 1.30 1.28 1.27 1.25 1.23 1.23 1.22 1.22 1.23 1.22 1.22 1.22 1.23 1.24 1.20 1.14 1.08 0.96 0.87 0.84 0.83 0.83 0.79 0.71 0.64 0.63 0.62 0.61 0.58 0.55 0.54 0.50 0.46 0.42 0.40 0.38 0.37 0.36 0.36
1.31 1.33 1.31 1.29 1.26 1.27 1.25 1.25 1.25 1.25 1.24 1.24 1.24 1.24 1.23 1.22 1.21 1.17 1.11 1.03 0.95 0.89 0.87 0.85 0.81 0.72 0.64 0.61 0.60 0.59 0.58 0.55 0.52 0.53 0.47 0.44 0.42 0.39 0.37 0.36 0.35 0.36
1.30 1.29 1.27 1.24 1.24 1.24 1.24 1.27 1.27 1.27 1.25 1.24 1.24 1.22 1.21 1.21 1.18 1.15 1.10 1.02 0.95 0.90 0.87 0.85 0.78 0.69 0.64 0.62 0.59 0.56 0.54 0.52 0.50 0.51 0.46 0.42 0.41 0.37 0.37 0.35 0.34 0.34
1.28 1.29 1.27 1.27 1.27 1.25 1.26 1.24 1.25 1.25 1.24 1.21 1.20 1.21 1.22 1.20 1.16 1.13 1.08 1.02 0.94 0.88 0.87 0.83 0.75 0.69 0.65 0.62 0.58 0.55 0.54 0.53 0.51 0.48 0.43 0.42 0.40 0.38 0.37 0.36 0.35 0.34
1.27 1.28 1.29 1.30 1.31 1.28 1.25 1.22 1.21 1.21 1.20 1.20 1.21 1.21 1.20 1.16 1.13 1.10 1.06 0.99 0.92 0.86 0.84 0.80 0.75 0.69 0.66 0.61 0.58 0.54 0.53 0.50 0.50 0.46 0.42 0.40 0.40 0.38 0.37 0.36 0.34 0.32
1.28 1.30 1.32 1.33 1.30 1.26 1.23 1.21 1.22 1.21 1.20 1.18 1.18 1.20 1.18 1.16 1.12 1.08 1.04 0.97 0.91 0.85 0.82 0.78 0.75 0.72 0.67 0.62 0.59 0.54 0.50 0.49 0.49 0.46 0.41 0.39 0.38 0.38 0.36 0.34 0.32 0.31
1.25 1.29 1.31 1.33 1.29 1.26 1.23 1.23 1.24 1.23 1.20 1.19 1.18 1.15 1.16 1.14 1.11 1.07 1.02 0.96 0.90 0.85 0.81 0.78 0.75 0.73 0.69 0.63 0.57 0.52 0.50 0.49 0.48 0.44 0.40 0.40 0.39 0.37 0.38 0.37 0.36 0.35
1.27 1.32 1.33 1.31 1.27 1.24 1.22 1.23 1.22 1.21 1.19 1.17 1.14 1.14 1.14 1.12 1.09 1.05 1.00 0.94 0.89 0.85 0.82 0.80 0.77 0.73 0.68 0.62 0.55 0.52 0.51 0.50 0.46 0.43 0.41 0.40 0.39 0.37 0.37 0.37 0.36 0.35
1.29 1.30 1.30 1.27 1.24 1.21 1.20 1.21 1.20 1.19 1.18 1.14 1.11 1.10 1.11 1.10 1.06 1.01 0.97 0.93 0.88 0.85 0.83 0.80 0.77 0.72 0.66 0.59 0.54 0.53 0.50 0.49 0.47 0.44 0.41 0.39 0.38 0.36 0.36 0.37 0.35 0.35
1.27 1.29 1.26 1.24 1.20 1.20 1.19 1.20 1.19 1.17 1.16 1.13 1.10 1.09 1.06 1.05 1.02 0.99 0.96 0.92 0.86 0.84 0.81 0.78 0.75 0.70 0.63 0.59 0.57 0.54 0.50 0.48 0.47 0.45 0.43 0.41 0.39 0.38 0.37 0.37 0.36 0.35
1.25 1.25 1.23 1.22 1.20 1.19 1.18 1.20 1.19 1.16 1.14 1.11 1.10 1.07 1.06 1.03 1.01 1.00 0.95 0.90 0.86 0.83 0.80 0.77 0.72 0.67 0.62 0.61 0.59 0.55 0.51 0.50 0.49 0.46 0.44 0.43 0.41 0.39 0.39 0.38 0.38 0.37
1.23 1.22 1.21 1.21 1.20 1.18 1.17 1.18 1.19 1.17 1.13 1.12 1.11 1.07 1.04 1.03 1.01 0.99 0.94 0.89 0.86 0.83 0.79 0.75 0.71 0.67 0.64 0.61 0.58 0.55 0.54 0.53 0.51 0.47 0.46 0.44 0.42 0.41 0.40 0.41 0.39 0.38
1.21 1.21 1.22 1.22 1.20 1.17 1.17 1.17 1.17 1.16 1.13 1.09 1.09 1.06 1.03 1.01 1.00 0.97 0.94 0.90 0.86 0.82 0.78 0.75 0.72 0.69 0.66 0.62 0.59 0.56 0.55 0.54 0.51 0.48 0.47 0.45 0.43 0.43 0.43 0.43 0.42 0.42
1.21 1.23 1.24 1.23 1.21 1.18 1.17 1.16 1.16 1.15 1.12 1.09 1.07 1.03 1.01 1.00 0.98 0.96 0.94 0.90 0.85 0.81 0.79 0.78 0.75 0.72 0.69 0.64 0.61 0.59 0.58 0.56 0.53 0.50 0.49 0.47 0.46 0.46 0.46 0.45 0.43 0.41
1.22 1.23 1.25 1.24 1.21 1.16 1.14 1.14 1.14 1.13 1.10 1.08 1.05 1.04 1.03 1.02 1.00 0.97 0.94 0.90 0.86 0.82 0.81 0.80 0.77 0.73 0.70 0.66 0.62 0.61 0.60 0.56 0.54 0.53 0.51 0.49 0.48 0.47 0.47 0.45 0.43 0.42
1.22 1.23 1.24 1.24 1.20 1.15 1.14 1.14 1.14 1.11 1.08 1.06 1.05 1.05 1.05 1.03 1.00 0.98 0.95 0.91 0.87 0.85 0.84 0.83 0.79 0.76 0.72 0.68 0.65 0.62 0.60 0.58 0.57 0.55 0.53 0.52 0.50 0.49 0.48 0.46 0.44 0.43
1.22 1.22 1.23 1.21 1.19 1.17 1.15 1.13 1.12 1.09 1.07 1.06 1.05 1.04 1.04 1.03 1.00 0.98 0.96 0.93 0.90 0.87 0.85 0.84 0.81 0.78 0.75 0.72 0.69 0.65 0.62 0.61 0.58 0.57 0.56 0.54 0.53 0.51 0.48 0.46 0.44 0.45
1.21 1.22 1.22 1.21 1.19 1.16 1.14 1.13 1.12 1.08 1.06 1.06 1.04 1.01 1.01 1.02 0.99 0.98 0.96 0.94 0.92 0.90 0.87 0.85 0.82 0.80 0.76 0.74 0.72 0.69 0.67 0.64 0.61 0.58 0.57 0.56 0.54 0.54 0.51 0.47 0.45 0.44
1.22 1.21 1.21 1.20 1.19 1.17 1.16 1.13 1.10 1.06 1.05 1.05 1.03 1.02 1.00 0.98 0.97 0.97 0.95 0.94 0.92 0.89 0.87 0.86 0.84 0.81 0.78 0.76 0.75 0.74 0.71 0.68 0.64 0.61 0.59 0.57 0.56 0.56 0.53 0.49 0.47 0.44
1.22 1.22 1.21 1.20 1.20 1.19 1.16 1.12 1.08 1.05 1.05 1.07 1.06 1.03 1.00 0.98 0.97 0.95 0.95 0.94 0.93 0.90 0.88 0.86 0.84 0.83 0.80 0.79 0.78 0.78 0.76 0.72 0.68 0.66 0.62 0.60 0.59 0.58 0.55 0.53 0.51 0.45
1.21 1.21 1.20 1.21 1.21 1.19 1.15 1.11 1.07 1.05 1.05 1.06 1.06 1.04 1.01 0.98 0.97 0.96 0.96 0.95 0.93 0.90 0.88 0.86 0.86 0.86 0.84 0.82 0.81 0.80 0.78 0.76 0.74 0.71 0.65 0.64 0.62 0.60 0.59 0.58 0.55 0.51
1.20 1.20 1.20 1.20 1.19 1.18 1.13 1.09 1.07 1.06 1.05 1.06 1.06 1.05 1.04 1.02 1.00 0.97 0.95 0.94 0.93 0.91 0.88 0.87 0.88 0.86 0.85 0.83 0.83 0.84 0.85 0.82 0.80 0.73 0.68 0.68 0.66 0.65 0.66 0.66 0.62 0.57
1.21 1.21 1.20 1.20 1.19 1.16 1.12 1.09 1.07 1.07 1.07 1.08 1.04 1.03 1.02 1.00 0.99 0.98 0.97 0.95 0.93 0.92 0.90 0.89 0.88 0.89 0.90 0.91 0.92 0.86 0.76 0.74 0.73 0.73 0.74 0.72 0.70 0.70 0.76 0.76 0.70 0.63
1.21 1.21 1.21 1.20 1.19 1.16 1.13 1.11 1.12 1.12 1.10 1.09 1.05 1.03 1.01 1.01 1.00 0.98 0.97 0.97 0.95 0.94 0.94 0.92 0.94 0.95 0.93 0.91 0.89 0.83 0.75 0.70 0.70 0.67 0.62 0.64 0.67 0.73 0.79 0.80 0.75 0.66
1.23 1.22 1.22 1.22 1.20 1.19 1.17 1.13 1.12 1.12 1.13 1.13 1.10 1.07 1.04 1.03 1.02 0.99 0.98 0.98 0.97 0.98 0.98 0.95 0.94 0.94 0.94 0.90 0.82 0.76 0.73 0.71 0.69 0.66 0.61 0.62 0.66 0.71 0.76 0.79 0.74 0.63
1.23 1.25 1.24 1.23 1.23 1.21 1.18 1.16 1.17 1.16 1.14 1.12 1.10 1.08 1.06 1.05 1.03 1.00 0.97 0.97 0.99 0.99 0.98 0.96 0.94 0.93 0.93 0.89 0.83 0.77 0.74 0.72 0.68 0.62 0.57 0.57 0.62 0.67 0.71 0.70 0.63 0.59

ECMWFNIL_prec_pwat_132.txt.gz
Precipitable_Water
1.24 1.27 1.30 1.33 1.34 1.36 1.34 1.32 1.30 1.27 1.27 1.27 1.24 1.22 1.22 1.24 1.25 1.23 1.22 1.20 1.19 1.16 1.09 0.99 0.88 0.84 0.82 0.77 0.75 0.74 0.73 0.70 0.65 0.64 0.62 0.60 0.57 0.52 0.46 0.44 0.42 0.40
1.25 1.29 1.33 1.35 1.36 1.37 1.35 1.32 1.30 1.28 1.27 1.26 1.23 1.21 1.22 1.23 1.25 1.24 1.20 1.16 1.16 1.15 1.11 0.99 0.89 0.83 0.80 0.77 0.76 0.73 0.70 0.63 0.60 0.63 0.60 0.57 0.54 0.50 0.45 0.43 0.40 0.39
1.27 1.29 1.31 1.31 1.32 1.32 1.32 1.32 1.31 1.30 1.27 1.24 1.20 1.20 1.21 1.24 1.25 1.23 1.19 1.16 1.13 1.10 1.07 0.98 0.89 0.84 0.82 0.80 0.77 0.72 0.64 0.59 0.58 0.60 0.57 0.54 0.52 0.46 0.43 0.41 0.38 0.36
1.28 1.30 1.32 1.33 1.34 1.32 1.32 1.30 1.30 1.29 1.26 1.18 1.16 1.21 1.24 1.25 1.23 1.20 1.18 1.16 1.10 1.06 1.02 0.94 0.87 0.85 0.84 0.83 0.78 0.68 0.62 0.60 0.59 0.58 0.55 0.53 0.50 0.45 0.41 0.39 0.37 0.36
1.28 1.31 1.33 1.34 1.34 1.33 1.31 1.28 1.27 1.26 1.21 1.16 1.18 1.22 1.23 1.22 1.19 1.17 1.16 1.14 1.09 1.04 0.98 0.91 0.87 0.84 0.84 0.82 0.76 0.65 0.62 0.60 0.60 0.57 0.53 0.50 0.48 0.43 0.40 0.38 0.35 0.34
1.31 1.32 1.33 1.32 1.32 1.30 1.28 1.27 1.28 1.24 1.18 1.16 1.20 1.23 1.22 1.20 1.17 1.15 1.14 1.11 1.08 1.02 0.95 0.90 0.85 0.83 0.82 0.79 0.72 0.64 0.61 0.59 0.59 0.57 0.52 0.48 0.46 0.43 0.39 0.37 0.35 0.32
1.27 1.29 1.29 1.31 1.30 1.31 1.29 1.28 1.26 1.22 1.18 1.20 1.23 1.20 1.20 1.17 1.15 1.14 1.13 1.10 1.05 1.00 0.93 0.88 0.84 0.82 0.81 0.77 0.70 0.64 0.62 0.60 0.59 0.55 0.50 0.47 0.45 0.42 0.41 0.37 0.35 0.33
1.26 1.28 1.28 1.28 1.27 1.28 1.27 1.27 1.25 1.21 1.20 1.22 1.19 1.20 1.19 1.16 1.14 1.13 1.11 1.07 1.02 0.97 0.93 0.88 0.84 0.81 0.79 0.75 0.69 0.65 0.62 0.61 0.58 0.54 0.49 0.47 0.45 0.40 0.39 0.38 0.37 0.34
1.24 1.24 1.24 1.23 1.24 1.26 1.27 1.26 1.24 1.22 1.23 1.20 1.18 1.17 1.17 1.15 1.12 1.10 1.08 1.04 1.00 0.96 0.92 0.88 0.85 0.81 0.78 0.74 0.70 0.66 0.62 0.60 0.57 0.53 0.49 0.46 0.43 0.40 0.39 0.39 0.37 0.35
1.20 1.22 1.21 1.21 1.22 1.26 1.26 1.25 1.23 1.22 1.22 1.19 1.17 1.16 1.13 1.13 1.10 1.08 1.06 1.03 0.98 0.95 0.92 0.88 0.85 0.82 0.79 0.76 0.72 0.67 0.62 0.58 0.56 0.53 0.50 0.47 0.44 0.42 0.41 0.40 0.38 0.36
1.16 1.19 1.18 1.19 1.22 1.25 1.25 1.24 1.22 1.21 1.20 1.18 1.17 1.14 1.13 1.10 1.07 1.07 1.05 1.01 0.97 0.94 0.92 0.89 0.87 0.84 0.80 0.77 0.73 0.69 0.63 0.57 0.54 0.53 0.51 0.48 0.46 0.44 0.43 0.41 0.39 0.37
1.15 1.16 1.16 1.18 1.22 1.25 1.25 1.24 1.21 1.20 1.20 1.19 1.18 1.14 1.11 1.08 1.06 1.05 1.03 1.00 0.97 0.94 0.91 0.89 0.86 0.83 0.79 0.75 0.72 0.68 0.62 0.58 0.56 0.54 0.52 0.50 0.49 0.47 0.45 0.43 0.41 0.39
1.13 1.15 1.17 1.20 1.24 1.26 1.26 1.24 1.20 1.20 1.20 1.18 1.17 1.14 1.10 1.06 1.05 1.04 1.02 0.98 0.95 0.93 0.92 0.89 0.86 0.83 0.80 0.76 0.71 0.66 0.62 0.59 0.57 0.55 0.54 0.53 0.52 0.50 0.49 0.47 0.44 0.42
1.14 1.17 1.20 1.24 1.27 1.28 1.26 1.23 1.20 1.18 1.18 1.19 1.17 1.13 1.09 1.07 1.06 1.03 1.01 0.97 0.96 0.95 0.93 0.90 0.86 0.83 0.79 0.75 0.71 0.67 0.65 0.62 0.60 0.57 0.55 0.54 0.54 0.54 0.52 0.50 0.47 0.44
1.16 1.19 1.24 1.26 1.28 1.27 1.24 1.21 1.19 1.17 1.17 1.17 1.16 1.13 1.11 1.09 1.07 1.04 1.00 0.97 0.97 0.95 0.92 0.90 0.86 0.82 0.78 0.75 0.71 0.70 0.68 0.66 0.63 0.60 0.58 0.56 0.56 0.55 0.54 0.52 0.49 0.47
1.16 1.18 1.22 1.25 1.25 1.23 1.22 1.20 1.17 1.16 1.15 1.14 1.15 1.14 1.11 1.09 1.06 1.03 1.00 0.98 0.97 0.96 0.93 0.90 0.86 0.83 0.80 0.77 0.74 0.71 0.69 0.67 0.65 0.62 0.60 0.59 0.57 0.56 0.55 0.53 0.51 0.50
1.15 1.17 1.21 1.22 1.24 1.23 1.21 1.19 1.17 1.16 1.15 1.14 1.14 1.13 1.09 1.06 1.03 1.01 0.99 0.98 0.97 0.95 0.93 0.92 0.90 0.87 0.84 0.81 0.78 0.75 0.72 0.69 0.66 0.64 0.63 0.62 0.60 0.57 0.55 0.54 0.53 0.54
1.13 1.17 1.20 1.22 1.23 1.21 1.21 1.21 1.19 1.16 1.14 1.14 1.12 1.10 1.08 1.06 1.02 1.01 1.00 0.99 0.97 0.95 0.94 0.93 0.91 0.90 0.87 0.85 0.82 0.78 0.75 0.71 0.68 0.65 0.65 0.64 0.62 0.59 0.58 0.56 0.54 0.53
1.14 1.16 1.19 1.22 1.22 1.22 1.23 1.22 1.19 1.16 1.14 1.12 1.09 1.10 1.08 1.03 1.01 1.00 0.99 0.98 0.96 0.94 0.93 0.93 0.92 0.92 0.89 0.87 0.83 0.80 0.77 0.73 0.70 0.68 0.67 0.66 0.65 0.63 0.61 0.59 0.57 0.54
1.14 1.17 1.19 1.23 1.24 1.23 1.23 1.21 1.18 1.15 1.15 1.14 1.11 1.09 1.04 1.02 1.01 0.99 0.97 0.96 0.95 0.93 0.92 0.92 0.92 0.93 0.92 0.90 0.86 0.82 0.79 0.77 0.74 0.73 0.71 0.71 0.69 0.66 0.63 0.63 0.60 0.56
1.14 1.17 1.21 1.24 1.24 1.23 1.21 1.20 1.18 1.16 1.14 1.11 1.09 1.05 1.03 1.01 1.00 0.97 0.96 0.95 0.94 0.93 0.91 0.91 0.93 0.94 0.93 0.91 0.87 0.84 0.81 0.77 0.76 0.76 0.77 0.78 0.74 0.68 0.64 0.60 0.57 0.60
1.15 1.19 1.21 1.23 1.23 1.21 1.19 1.18 1.17 1.15 1.11 1.11 1.08 1.05 1.05 1.04 1.02 1.00 0.99 0.97 0.97 0.95 0.93 0.92 0.94 0.94 0.93 0.91 0.88 0.86 0.84 0.81 0.81 0.80 0.77 0.75 0.69 0.64 0.61 0.57 0.52 0.54
1.16 1.18 1.19 1.20 1.21 1.20 1.18 1.17 1.15 1.14 1.12 1.12 1.06 1.03 1.01 1.01 1.00 1.01 1.02 1.00 0.98 0.97 0.95 0.93 0.93 0.93 0.93 0.94 0.93 0.90 0.87 0.85 0.86 0.84 0.81 0.77 0.69 0.63 0.58 0.55 0.54 0.54
1.18 1.20 1.18 1.19 1.20 1.18 1.19 1.20 1.19 1.18 1.14 1.13 1.06 1.02 1.01 1.02 1.03 1.02 1.03 1.03 1.00 0.98 0.97 0.93 0.92 0.93 0.92 0.93 0.92 0.90 0.88 0.85 0.82 0.80 0.78 0.75 0.69 0.64 0.60 0.57 0.57 0.54
1.20 1.22 1.21 1.19 1.18 1.21 1.22 1.21 1.20 1.18 1.16 1.14 1.09 1.06 1.05 1.06 1.06 1.05 1.05 1.04 1.03 1.01 0.98 0.94 0.92 0.92 0.93 0.93 0.92 0.91 0.89 0.86 0.83 0.80 0.77 0.74 0.69 0.66 0.66 0.62 0.59 0.57
1.20 1.21 1.18 1.17 1.20 1.24 1.24 1.22 1.22 1.19 1.16 1.13 1.09 1.07 1.07 1.08 1.09 1.08 1.06 1.04 1.03 1.01 0.99 0.96 0.93 0.93 0.94 0.94 0.93 0.91 0.88 0.85 0.82 0.78 0.76 0.74 0.74 0.72 0.67 0.66 0.63 0.60

ECMWFNIL_prec_pwat_135.txt.gz
Precipitable_Water
1.04 1.02 1.04 1.09 1.12 1.17 1.22 1.27 1.32 1.32 1.34 1.35 1.32 1.31 1.31 1.33 1.33 1.32 1.33 1.33 1.33 1.33 1.31 1.27 1.23 1.18 1.08 0.99 0.93 0.91 0.84 0.77 0.74 0.74 0.72 0.71 0.67 0.61 0.55 0.53 0.50 0.47
1.04 1.03 1.07 1.12 1.15 1.20 1.27 1.33 1.33 1.33 1.34 1.36 1.34 1.33 1.33 1.31 1.30 1.30 1.29 1.30 1.31 1.29 1.27 1.25 1.21 1.12 1.07 0.99 0.90 0.85 0.81 0.78 0.75 0.75 0.72 0.69 0.64 0.59 0.55 0.54 0.51 0.48
1.06 1.03 1.05 1.08 1.12 1.21 1.29 1.35 1.35 1.34 1.34 1.34 1.35 1.33 1.31 1.30 1.27 1.27 1.27 1.27 1.27 1.26 1.25 1.23 1.17 1.12 1.03 0.92 0.86 0.82 0.78 0.76 0.73 0.74 0.73 0.68 0.62 0.58 0.57 0.56 0.52 0.48
1.06 1.05 1.07 1.13 1.18 1.24 1.32 1.34 1.33 1.33 1.35 1.33 1.32 1.32 1.30 1.28 1.25 1.23 1.23 1.24 1.24 1.25 1.24 1.23 1.16 1.10 0.99 0.89 0.85 0.81 0.78 0.75 0.75 0.75 0.72 0.67 0.62 0.60 0.58 0.55 0.52 0.47
1.06 1.07 1.11 1.17 1.23 1.30 1.33 1.32 1.30 1.31 1.31 1.32 1.34 1.31 1.28 1.25 1.21 1.20 1.20 1.22 1.25 1.24 1.22 1.20 1.14 1.05 0.99 0.91 0.85 0.80 0.77 0.75 0.77 0.76 0.69 0.63 0.61 0.58 0.56 0.53 0.49 0.45
1.09 1.10 1.14 1.20 1.25 1.29 1.31 1.30 1.31 1.31 1.31 1.32 1.32 1.31 1.28 1.24 1.20 1.17 1.20 1.22 1.23 1.21 1.19 1.20 1.12 1.06 0.99 0.89 0.83 0.79 0.76 0.75 0.77 0.73 0.65 0.59 0.58 0.57 0.54 0.51 0.47 0.43
1.05 1.08 1.13 1.21 1.25 1.31 1.31 1.31 1.31 1.32 1.34 1.35 1.33 1.28 1.27 1.22 1.17 1.17 1.20 1.22 1.19 1.16 1.14 1.13 1.07 1.00 0.95 0.87 0.80 0.76 0.76 0.76 0.76 0.70 0.62 0.58 0.56 0.54 0.53 0.49 0.46 0.42
1.06 1.10 1.17 1.22 1.24 1.29 1.29 1.30 1.30 1.31 1.33 1.33 1.29 1.29 1.27 1.20 1.17 1.19 1.21 1.20 1.16 1.13 1.11 1.08 1.03 0.97 0.92 0.85 0.79 0.75 0.75 0.77 0.74 0.68 0.61 0.57 0.55 0.52 0.50 0.48 0.45 0.41
1.07 1.09 1.16 1.20 1.23 1.26 1.26 1.28 1.30 1.32 1.34 1.31 1.29 1.28 1.25 1.19 1.18 1.20 1.19 1.18 1.14 1.11 1.08 1.06 1.01 0.96 0.91 0.85 0.80 0.77 0.76 0.75 0.72 0.67 0.61 0.56 0.53 0.50 0.48 0.47 0.44 0.41
1.06 1.11 1.15 1.18 1.20 1.24 1.24 1.27 1.30 1.32 1.33 1.30 1.29 1.27 1.19 1.18 1.20 1.20 1.17 1.15 1.10 1.08 1.06 1.04 1.00 0.96 0.91 0.86 0.82 0.79 0.77 0.73 0.70 0.66 0.61 0.57 0.53 0.50 0.48 0.46 0.43 0.42
1.06 1.11 1.14 1.16 1.19 1.22 1.23 1.27 1.30 1.31 1.31 1.28 1.27 1.22 1.18 1.19 1.20 1.18 1.15 1.10 1.07 1.06 1.04 1.01 0.98 0.94 0.89 0.87 0.85 0.83 0.79 0.74 0.70 0.67 0.63 0.59 0.55 0.52 0.49 0.47 0.45 0.42
1.06 1.10 1.13 1.14 1.18 1.21 1.23 1.27 1.30 1.30 1.29 1.28 1.26 1.21 1.19 1.20 1.18 1.16 1.12 1.08 1.06 1.06 1.03 1.00 0.97 0.94 0.90 0.88 0.86 0.84 0.81 0.78 0.74 0.70 0.65 0.60 0.56 0.53 0.51 0.49 0.47 0.46
1.04 1.08 1.12 1.14 1.18 1.22 1.25 1.26 1.27 1.29 1.28 1.25 1.26 1.23 1.20 1.17 1.16 1.13 1.12 1.09 1.06 1.05 1.02 1.00 0.97 0.94 0.92 0.89 0.86 0.84 0.80 0.77 0.73 0.69 0.65 0.60 0.56 0.54 0.54 0.52 0.51 0.49
1.05 1.11 1.15 1.17 1.21 1.24 1.24 1.24 1.26 1.28 1.28 1.27 1.24 1.21 1.19 1.17 1.15 1.12 1.11 1.08 1.05 1.04 1.04 1.01 0.98 0.94 0.91 0.88 0.84 0.81 0.78 0.75 0.72 0.68 0.63 0.60 0.59 0.58 0.57 0.55 0.54 0.53
1.08 1.13 1.17 1.17 1.19 1.21 1.22 1.22 1.24 1.27 1.28 1.24 1.22 1.21 1.20 1.19 1.17 1.14 1.09 1.05 1.05 1.05 1.03 1.00 0.96 0.92 0.90 0.87 0.83 0.81 0.79 0.74 0.70 0.66 0.62 0.61 0.60 0.59 0.58 0.57 0.55 0.53
1.10 1.14 1.15 1.16 1.16 1.17 1.19 1.21 1.24 1.26 1.24 1.21 1.19 1.19 1.19 1.18 1.16 1.13 1.09 1.05 1.04 1.03 1.01 0.98 0.95 0.94 0.92 0.88 0.84 0.81 0.77 0.73 0.69 0.67 0.64 0.63 0.61 0.59 0.58 0.57 0.55 0.54
1.10 1.13 1.14 1.12 1.13 1.16 1.18 1.20 1.22 1.25 1.23 1.20 1.18 1.16 1.16 1.16 1.15 1.11 1.07 1.06 1.04 1.01 0.98 0.96 0.96 0.95 0.93 0.89 0.86 0.82 0.79 0.75 0.71 0.68 0.68 0.67 0.64 0.62 0.59 0.58 0.58 0.58
1.08 1.10 1.10 1.10 1.12 1.13 1.15 1.19 1.22 1.23 1.21 1.19 1.17 1.15 1.15 1.15 1.12 1.10 1.08 1.07 1.04 1.00 0.97 0.96 0.96 0.96 0.93 0.90 0.88 0.85 0.82 0.79 0.76 0.74 0.73 0.71 0.69 0.66 0.64 0.62 0.61 0.60
1.07 1.08 1.08 1.09 1.09 1.11 1.15 1.18 1.20 1.21 1.20 1.19 1.16 1.16 1.16 1.13 1.11 1.10 1.07 1.07 1.03 0.99 0.96 0.96 0.96 0.96 0.93 0.90 0.88 0.86 0.84 0.81 0.80 0.79 0.77 0.74 0.71 0.68 0.65 0.63 0.63 0.62
1.05 1.07 1.07 1.08 1.09 1.11 1.13 1.16 1.19 1.19 1.21 1.23 1.19 1.17 1.14 1.12 1.11 1.10 1.09 1.06 1.03 0.99 0.98 0.98 0.97 0.96 0.94 0.91 0.90 0.88 0.88 0.87 0.85 0.83 0.79 0.75 0.72 0.70 0.67 0.67 0.63 0.68
1.02 1.06 1.07 1.07 1.08 1.09 1.11 1.15 1.18 1.20 1.22 1.21 1.18 1.16 1.13 1.11 1.10 1.09 1.08 1.07 1.04 1.01 0.99 0.98 0.98 0.97 0.94 0.92 0.91 0.89 0.90 0.88 0.84 0.81 0.79 0.76 0.75 0.74 0.69 0.67 0.66 0.64
1.01 1.04 1.06 1.07 1.06 1.07 1.10 1.14 1.18 1.20 1.19 1.20 1.19 1.17 1.16 1.15 1.13 1.11 1.09 1.07 1.05 1.02 0.98 0.96 0.97 0.96 0.94 0.93 0.92 0.91 0.89 0.87 0.85 0.82 0.79 0.77 0.77 0.79 0.76 0.73 0.68 0.61
1.00 1.02 1.02 1.03 1.04 1.05 1.09 1.14 1.18 1.21 1.21 1.22 1.18 1.16 1.14 1.13 1.11 1.10 1.10 1.08 1.05 1.03 0.99 0.97 0.97 0.97 0.95 0.94 0.93 0.92 0.89 0.88 0.87 0.84 0.81 0.78 0.78 0.80 0.78 0.73 0.67 0.60
1.00 1.02 1.01 1.01 1.01 1.03 1.10 1.17 1.23 1.25 1.23 1.23 1.18 1.16 1.13 1.13 1.13 1.10 1.09 1.08 1.06 1.03 1.03 1.00 0.99 0.99 0.97 0.95 0.94 0.93 0.91 0.87 0.86 0.83 0.81 0.79 0.79 0.79 0.77 0.73 0.69 0.62
1.03 1.04 1.02 1.01 1.03 1.10 1.16 1.18 1.21 1.21 1.23 1.23 1.20 1.19 1.17 1.16 1.13 1.09 1.08 1.08 1.08 1.06 1.05 1.02 1.01 1.00 0.99 0.96 0.95 0.94 0.90 0.89 0.88 0.85 0.82 0.80 0.78 0.76 0.76 0.74 0.71 0.66
1.05 1.05 1.03 1.00 1.03 1.13 1.22 1.24 1.24 1.22 1.20 1.20 1.20 1.20 1.18 1.15 1.13 1.10 1.07 1.07 1.08 1.08 1.07 1.05 1.02 1.01 1.01 0.98 0.96 0.96 0.95 0.92 0.89 0.84 0.79 0.78 0.79 0.78 0.76 0.75 0.71 0.67

ECMWFNIL_prec_pwat_138.txt.gz
Precipitable_Water
1.14 1.15 1.11 1.06 1.05 1.06 1.05 1.04 1.07 1.08 1.12 1.19 1.24 1.31 1.37 1.44 1.48 1.47 1.44 1.42 1.41 1.40 1.39 1.38 1.36 1.33 1.32 1.30 1.22 1.08 0.99 0.97 0.93 0.91 0.86 0.82 0.81 0.81 0.79 0.79 0.78 0.75
1.12 1.16 1.14 1.09 1.07 1.08 1.07 1.08 1.08 1.10 1.14 1.20 1.29 1.35 1.39 1.42 1.46 1.43 1.40 1.39 1.38 1.37 1.36 1.34 1.33 1.30 1.27 1.25 1.18 1.04 0.99 0.95 0.88 0.87 0.81 0.78 0.77 0.77 0.75 0.74 0.72 0.70
1.14 1.15 1.12 1.05 1.03 1.04 1.05 1.08 1.11 1.15 1.17 1.23 1.31 1.37 1.39 1.42 1.41 1.40 1.39 1.37 1.34 1.33 1.32 1.33 1.31 1.29 1.26 1.26 1.20 1.08 1.04 0.95 0.86 0.82 0.78 0.75 0.73 0.70 0.69 0.68 0.66 0.60
1.15 1.17 1.12 1.08 1.07 1.05 1.07 1.06 1.10 1.14 1.19 1.23 1.30 1.36 1.38 1.40 1.39 1.37 1.36 1.35 1.32 1.30 1.30 1.31 1.28 1.25 1.23 1.22 1.12 1.04 0.99 0.91 0.83 0.80 0.77 0.74 0.71 0.68 0.67 0.67 0.64 0.58
1.16 1.18 1.16 1.12 1.11 1.09 1.08 1.05 1.07 1.13 1.18 1.26 1.32 1.34 1.34 1.36 1.35 1.33 1.32 1.30 1.29 1.28 1.27 1.26 1.24 1.21 1.20 1.16 1.10 1.00 0.94 0.86 0.81 0.79 0.74 0.70 0.69 0.69 0.69 0.67 0.63 0.57
1.18 1.19 1.17 1.13 1.10 1.08 1.06 1.05 1.09 1.14 1.20 1.25 1.28 1.30 1.33 1.36 1.34 1.30 1.29 1.27 1.27 1.25 1.23 1.23 1.21 1.19 1.19 1.17 1.09 1.00 0.92 0.83 0.80 0.77 0.72 0.70 0.71 0.72 0.70 0.66 0.61 0.56
1.14 1.16 1.14 1.14 1.11 1.10 1.08 1.09 1.12 1.17 1.21 1.27 1.29 1.29 1.35 1.34 1.31 1.28 1.28 1.27 1.25 1.22 1.20 1.22 1.20 1.17 1.17 1.12 1.06 0.96 0.88 0.81 0.78 0.76 0.72 0.70 0.71 0.72 0.69 0.64 0.59 0.54
1.15 1.18 1.17 1.14 1.10 1.10 1.09 1.10 1.13 1.17 1.23 1.29 1.25 1.28 1.31 1.30 1.29 1.28 1.27 1.25 1.21 1.19 1.21 1.22 1.18 1.16 1.15 1.11 1.01 0.91 0.85 0.82 0.78 0.75 0.72 0.70 0.71 0.70 0.68 0.63 0.57 0.52
1.18 1.17 1.16 1.13 1.09 1.08 1.09 1.11 1.15 1.19 1.26 1.28 1.27 1.27 1.29 1.31 1.31 1.28 1.26 1.23 1.19 1.18 1.21 1.20 1.15 1.13 1.13 1.06 0.98 0.90 0.82 0.78 0.76 0.73 0.71 0.69 0.69 0.67 0.65 0.61 0.56 0.51
1.17 1.17 1.15 1.13 1.08 1.07 1.08 1.12 1.17 1.20 1.26 1.28 1.28 1.28 1.30 1.33 1.32 1.27 1.24 1.20 1.17 1.17 1.19 1.17 1.13 1.10 1.08 1.04 0.96 0.89 0.83 0.79 0.76 0.74 0.72 0.70 0.68 0.66 0.64 0.60 0.55 0.50
1.15 1.15 1.13 1.12 1.08 1.06 1.07 1.13 1.18 1.20 1.25 1.26 1.25 1.24 1.28 1.29 1.26 1.25 1.22 1.18 1.14 1.15 1.17 1.14 1.10 1.07 1.04 1.00 0.95 0.90 0.86 0.81 0.78 0.76 0.73 0.71 0.69 0.67 0.63 0.59 0.54 0.50
1.15 1.15 1.12 1.10 1.08 1.06 1.08 1.14 1.18 1.20 1.24 1.25 1.25 1.23 1.26 1.27 1.24 1.23 1.21 1.16 1.14 1.15 1.15 1.12 1.08 1.06 1.03 0.99 0.96 0.92 0.87 0.84 0.81 0.77 0.75 0.73 0.71 0.67 0.64 0.60 0.55 0.51
1.14 1.14 1.12 1.11 1.09 1.07 1.11 1.15 1.17 1.21 1.23 1.21 1.24 1.24 1.26 1.24 1.23 1.22 1.20 1.16 1.16 1.15 1.12 1.07 1.05 1.05 1.03 0.99 0.95 0.91 0.88 0.85 0.81 0.78 0.76 0.74 0.72 0.69 0.65 0.61 0.56 0.52
1.15 1.18 1.15 1.13 1.12 1.12 1.12 1.15 1.18 1.20 1.22 1.22 1.22 1.23 1.25 1.23 1.22 1.21 1.18 1.17 1.16 1.14 1.10 1.07 1.05 1.04 1.02 0.98 0.95 0.91 0.88 0.84 0.82 0.78 0.76 0.74 0.72 0.69 0.65 0.61 0.56 0.52
1.18 1.20 1.19 1.15 1.14 1.12 1.11 1.13 1.16 1.19 1.21 1.20 1.22 1.26 1.27 1.25 1.24 1.21 1.18 1.16 1.14 1.12 1.08 1.06 1.04 1.02 1.01 0.97 0.93 0.90 0.88 0.85 0.81 0.78 0.74 0.71 0.69 0.67 0.63 0.58 0.56 0.56
1.20 1.20 1.17 1.14 1.11 1.10 1.11 1.14 1.15 1.17 1.17 1.18 1.22 1.24 1.24 1.23 1.21 1.20 1.18 1.15 1.12 1.10 1.08 1.05 1.03 1.03 1.01 0.97 0.94 0.90 0.88 0.84 0.80 0.76 0.73 0.70 0.67 0.63 0.61 0.60 0.60 0.60
1.20 1.19 1.17 1.11 1.10 1.11 1.12 1.13 1.13 1.14 1.17 1.20 1.20 1.20 1.22 1.21 1.19 1.16 1.15 1.14 1.12 1.10 1.07 1.05 1.04 1.03 1.01 0.97 0.94 0.91 0.88 0.83 0.78 0.75 0.74 0.72 0.69 0.65 0.63 0.63 0.64 0.66
1.18 1.18 1.14 1.10 1.09 1.08 1.08 1.11 1.13 1.16 1.17 1.17 1.16 1.17 1.21 1.21 1.16 1.14 1.14 1.14 1.13 1.11 1.07 1.06 1.05 1.04 1.00 0.96 0.93 0.91 0.89 0.84 0.81 0.78 0.77 0.75 0.73 0.70 0.69 0.68 0.67 0.66
1.19 1.16 1.11 1.07 1.06 1.06 1.09 1.12 1.13 1.13 1.13 1.15 1.15 1.19 1.21 1.18 1.15 1.13 1.12 1.13 1.12 1.09 1.07 1.07 1.06 1.05 0.99 0.95 0.92 0.91 0.89 0.86 0.83 0.81 0.79 0.76 0.74 0.73 0.71 0.69 0.68 0.65
1.18 1.14 1.08 1.06 1.06 1.07 1.08 1.10 1.09 1.10 1.15 1.18 1.18 1.19 1.18 1.16 1.15 1.12 1.11 1.11 1.11 1.09 1.08 1.08 1.07 1.05 0.99 0.95 0.93 0.91 0.89 0.87 0.84 0.82 0.80 0.78 0.76 0.75 0.72 0.69 0.69 0.68
1.14 1.10 1.06 1.04 1.04 1.04 1.06 1.08 1.09 1.11 1.13 1.14 1.15 1.17 1.16 1.15 1.15 1.11 1.10 1.11 1.11 1.10 1.08 1.08 1.08 1.05 0.99 0.96 0.94 0.92 0.91 0.89 0.86 0.84 0.82 0.80 0.79 0.76 0.74 0.74 0.74 0.70
1.09 1.05 1.03 1.02 1.01 1.02 1.04 1.05 1.07 1.09 1.09 1.12 1.15 1.18 1.19 1.20 1.20 1.15 1.12 1.11 1.11 1.10 1.09 1.08 1.07 1.05 1.01 0.98 0.96 0.94 0.92 0.90 0.87 0.85 0.83 0.80 0.79 0.79 0.77 0.78 0.77 0.73
1.09 1.03 1.00 0.99 0.98 0.99 1.00 1.04 1.06 1.08 1.08 1.12 1.13 1.15 1.16 1.19 1.18 1.15 1.16 1.13 1.11 1.11 1.10 1.08 1.07 1.06 1.03 1.00 0.97 0.95 0.92 0.90 0.88 0.87 0.85 0.83 0.81 0.80 0.78 0.78 0.77 0.75
1.11 1.04 0.98 0.96 0.96 0.96 0.99 1.05 1.10 1.11 1.10 1.14 1.14 1.14 1.16 1.19 1.18 1.17 1.17 1.15 1.12 1.12 1.13 1.10 1.08 1.07 1.03 1.00 0.97 0.95 0.93 0.91 0.89 0.87 0.85 0.83 0.81 0.81 0.79 0.79 0.79 0.77
1.14 1.08 1.01 0.98 0.97 0.98 1.01 1.06 1.09 1.08 1.09 1.13 1.15 1.19 1.22 1.21 1.18 1.17 1.17 1.16 1.15 1.14 1.14 1.11 1.08 1.07 1.04 1.01 0.99 0.97 0.96 0.95 0.93 0.90 0.85 0.84 0.82 0.81 0.81 0.80 0.77 0.76
1.16 1.09 1.05 1.03 0.99 0.96 1.03 1.09 1.12 1.10 1.10 1.11 1.16 1.22 1.21 1.18 1.18 1.20 1.17 1.16 1.16 1.13 1.13 1.12 1.09 1.07 1.06 1.05 1.03 1.00 0.98 0.96 0.93 0.89 0.86 0.85 0.85 0.83 0.80 0.76 0.74 0.74

ECMWFNIL_prec_pwat_141.txt.gz
Precipitable_Water
1.16 1.14 1.13 1.15 1.16 1.17 1.14 1.12 1.13 1.12 1.15 1.18 1.14 1.15 1.18 1.24 1.29 1.32 1.37 1.44 1.49 1.51 1.49 1.44 1.40 1.42 1.41 1.45 1.39 1.37 1.32 1.28 1.19 1.07 1.01 1.00 0.98 0.94 0.89 0.89 0.88 0.87
1.14 1.14 1.16 1.18 1.18 1.19 1.17 1.16 1.14 1.12 1.14 1.16 1.15 1.17 1.22 1.27 1.31 1.35 1.39 1.45 1.49 1.48 1.47 1.44 1.38 1.37 1.35 1.33 1.33 1.30 1.27 1.25 1.15 1.05 1.01 1.03 0.98 0.91 0.86 0.86 0.85 0.86
1.13 1.12 1.14 1.14 1.16 1.17 1.17 1.18 1.16 1.15 1.14 1.17 1.19 1.18 1.21 1.29 1.32 1.37 1.41 1.44 1.45 1.45 1.42 1.39 1.38 1.36 1.37 1.32 1.30 1.26 1.21 1.18 1.12 1.05 1.03 1.01 0.95 0.86 0.83 0.83 0.82 0.80
1.12 1.13 1.15 1.17 1.19 1.18 1.18 1.16 1.14 1.14 1.17 1.16 1.16 1.18 1.22 1.29 1.34 1.38 1.39 1.42 1.43 1.41 1.38 1.37 1.34 1.34 1.31 1.29 1.26 1.23 1.19 1.17 1.11 1.03 1.01 0.97 0.88 0.83 0.80 0.79 0.77 0.75
1.09 1.13 1.17 1.19 1.21 1.21 1.19 1.14 1.10 1.10 1.13 1.16 1.19 1.20 1.22 1.27 1.33 1.37 1.39 1.39 1.40 1.38 1.35 1.32 1.30 1.28 1.28 1.26 1.25 1.20 1.17 1.09 1.05 1.01 0.95 0.87 0.81 0.77 0.76 0.74 0.70 0.67
1.13 1.16 1.18 1.18 1.20 1.19 1.16 1.13 1.10 1.10 1.13 1.14 1.16 1.20 1.22 1.27 1.33 1.36 1.37 1.36 1.37 1.35 1.32 1.29 1.26 1.25 1.26 1.25 1.22 1.18 1.14 1.08 1.04 0.99 0.90 0.81 0.75 0.74 0.71 0.69 0.66 0.62
1.09 1.14 1.16 1.19 1.20 1.20 1.16 1.14 1.11 1.12 1.15 1.17 1.18 1.17 1.21 1.25 1.32 1.35 1.36 1.36 1.35 1.32 1.28 1.25 1.23 1.22 1.24 1.22 1.19 1.15 1.13 1.09 1.03 0.97 0.87 0.80 0.74 0.71 0.71 0.68 0.64 0.63
1.10 1.15 1.17 1.18 1.17 1.17 1.15 1.14 1.11 1.13 1.17 1.18 1.15 1.18 1.21 1.25 1.32 1.36 1.35 1.35 1.34 1.31 1.26 1.24 1.21 1.20 1.21 1.20 1.16 1.11 1.07 1.05 0.99 0.91 0.83 0.76 0.73 0.70 0.69 0.68 0.67 0.65
1.12 1.13 1.14 1.15 1.14 1.15 1.14 1.13 1.12 1.15 1.19 1.17 1.16 1.18 1.23 1.28 1.33 1.35 1.34 1.33 1.33 1.30 1.26 1.21 1.19 1.18 1.19 1.18 1.15 1.09 1.05 1.01 0.93 0.84 0.78 0.73 0.71 0.69 0.68 0.68 0.67 0.66
1.09 1.12 1.12 1.13 1.12 1.14 1.13 1.14 1.14 1.16 1.20 1.19 1.18 1.20 1.20 1.28 1.35 1.35 1.32 1.31 1.31 1.29 1.25 1.20 1.17 1.17 1.17 1.16 1.12 1.08 1.04 0.95 0.86 0.79 0.76 0.75 0.72 0.69 0.68 0.67 0.66 0.65
1.09 1.10 1.09 1.11 1.11 1.14 1.14 1.16 1.15 1.16 1.19 1.19 1.18 1.18 1.22 1.28 1.32 1.32 1.29 1.27 1.27 1.27 1.23 1.17 1.16 1.17 1.15 1.12 1.10 1.07 1.00 0.92 0.84 0.78 0.76 0.76 0.75 0.73 0.71 0.69 0.68 0.67
1.08 1.09 1.07 1.09 1.12 1.14 1.16 1.16 1.17 1.17 1.19 1.20 1.20 1.19 1.22 1.28 1.29 1.28 1.27 1.26 1.28 1.28 1.22 1.17 1.17 1.17 1.14 1.10 1.07 1.04 0.98 0.91 0.86 0.82 0.80 0.79 0.77 0.75 0.74 0.72 0.70 0.68
1.07 1.07 1.08 1.10 1.14 1.17 1.18 1.18 1.18 1.18 1.20 1.19 1.20 1.20 1.23 1.25 1.26 1.26 1.27 1.26 1.26 1.25 1.20 1.17 1.16 1.16 1.13 1.09 1.05 1.01 0.96 0.91 0.87 0.85 0.83 0.82 0.80 0.78 0.76 0.74 0.72 0.69
1.08 1.10 1.12 1.13 1.18 1.20 1.18 1.20 1.21 1.20 1.20 1.22 1.21 1.20 1.22 1.23 1.23 1.23 1.25 1.26 1.25 1.23 1.20 1.17 1.16 1.14 1.12 1.07 1.03 1.00 0.96 0.91 0.87 0.84 0.83 0.83 0.81 0.79 0.77 0.74 0.72 0.69
1.11 1.14 1.16 1.16 1.19 1.19 1.19 1.20 1.21 1.21 1.21 1.21 1.20 1.20 1.23 1.23 1.23 1.22 1.22 1.22 1.23 1.21 1.17 1.16 1.14 1.12 1.09 1.05 1.01 0.99 0.96 0.91 0.87 0.86 0.84 0.82 0.80 0.78 0.76 0.73 0.70 0.67
1.13 1.15 1.15 1.15 1.17 1.17 1.19 1.21 1.22 1.21 1.19 1.18 1.18 1.19 1.22 1.21 1.19 1.20 1.22 1.21 1.20 1.17 1.14 1.13 1.13 1.11 1.08 1.04 1.02 0.99 0.95 0.91 0.89 0.87 0.85 0.83 0.79 0.77 0.74 0.71 0.68 0.65
1.13 1.15 1.16 1.14 1.16 1.20 1.21 1.23 1.24 1.22 1.17 1.17 1.17 1.18 1.20 1.18 1.15 1.17 1.20 1.20 1.19 1.16 1.12 1.12 1.12 1.10 1.06 1.03 1.01 0.99 0.95 0.91 0.88 0.87 0.86 0.83 0.80 0.76 0.71 0.68 0.67 0.65
1.11 1.16 1.16 1.16 1.18 1.19 1.21 1.24 1.27 1.23 1.17 1.15 1.14 1.15 1.17 1.16 1.13 1.17 1.19 1.20 1.18 1.16 1.13 1.11 1.10 1.10 1.06 1.02 1.01 0.98 0.95 0.91 0.89 0.87 0.86 0.83 0.80 0.76 0.73 0.70 0.68 0.66
1.11 1.14 1.16 1.16 1.17 1.21 1.25 1.26 1.25 1.22 1.17 1.12 1.10 1.14 1.15 1.12 1.13 1.15 1.16 1.18 1.17 1.14 1.12 1.11 1.10 1.09 1.06 1.03 1.01 0.97 0.93 0.91 0.89 0.88 0.85 0.83 0.80 0.77 0.74 0.71 0.69 0.67
1.09 1.14 1.16 1.17 1.19 1.24 1.25 1.24 1.24 1.21 1.16 1.13 1.14 1.14 1.11 1.11 1.10 1.09 1.13 1.15 1.16 1.15 1.12 1.10 1.09 1.08 1.06 1.03 1.00 0.96 0.93 0.91 0.90 0.89 0.86 0.83 0.81 0.78 0.75 0.73 0.71 0.69
1.07 1.13 1.17 1.19 1.21 1.23 1.24 1.23 1.23 1.21 1.17 1.12 1.11 1.10 1.10 1.08 1.07 1.06 1.10 1.14 1.15 1.15 1.12 1.10 1.09 1.09 1.06 1.03 1.00 0.96 0.92 0.91 0.91 0.90 0.87 0.84 0.82 0.80 0.77 0.75 0.75 0.74
1.06 1.12 1.18 1.21 1.21 1.22 1.22 1.21 1.21 1.20 1.13 1.10 1.09 1.12 1.14 1.12 1.09 1.09 1.10 1.12 1.14 1.14 1.12 1.08 1.09 1.09 1.07 1.03 0.99 0.95 0.92 0.91 0.91 0.89 0.86 0.84 0.82 0.81 0.80 0.80 0.79 0.76
1.09 1.14 1.19 1.20 1.21 1.20 1.18 1.19 1.19 1.17 1.13 1.11 1.09 1.11 1.09 1.07 1.05 1.07 1.11 1.12 1.11 1.12 1.10 1.08 1.08 1.08 1.07 1.04 0.99 0.95 0.92 0.92 0.90 0.88 0.86 0.84 0.82 0.82 0.82 0.81 0.80 0.79
1.14 1.19 1.21 1.21 1.21 1.18 1.17 1.18 1.21 1.19 1.13 1.11 1.08 1.06 1.06 1.07 1.07 1.07 1.10 1.11 1.09 1.10 1.11 1.07 1.08 1.09 1.07 1.04 0.99 0.96 0.93 0.92 0.90 0.88 0.86 0.85 0.85 0.85 0.84 0.83 0.80 0.80
1.21 1.24 1.24 1.23 1.21 1.20 1.18 1.18 1.18 1.13 1.10 1.10 1.10 1.12 1.11 1.11 1.09 1.06 1.07 1.08 1.11 1.12 1.12 1.11 1.11 1.09 1.07 1.03 0.99 0.96 0.94 0.94 0.91 0.89 0.86 0.85 0.84 0.84 0.85 0.82 0.79 0.80
1.24 1.25 1.26 1.25 1.23 1.21 1.18 1.20 1.20 1.14 1.10 1.07 1.11 1.12 1.09 1.08 1.07 1.06 1.05 1.06 1.11 1.12 1.12 1.14 1.13 1.10 1.07 1.03 1.00 0.98 0.97 0.96 0.93 0.89 0.86 0.86 0.87 0.85 0.82 0.80 0.79 0.80

ECMWFNIL_prec_pwat_144.txt.gz
Precipitable_Water
1.27 1.24 1.24 1.23 1.24 1.27 1.27 1.22 1.19 1.16 1.14 1.16 1.15 1.17 1.19 1.24 1.28 1.27 1.26 1.28 1.33 1.38 1.44 1.47 1.49 1.51 1.52 1.49 1.48 1.44 1.42 1.44 1.45 1.40 1.35 1.30 1.18 1.10 1.07 1.07 1.06 1.03
1.28 1.26 1.26 1.27 1.27 1.27 1.29 1.28 1.23 1.17 1.14 1.16 1.17 1.20 1.23 1.25 1.30 1.28 1.24 1.25 1.29 1.34 1.44 1.49 1.52 1.52 1.50 1.46 1.44 1.38 1.36 1.37 1.37 1.40 1.33 1.27 1.18 1.09 1.07 1.09 1.07 1.04
1.30 1.26 1.23 1.22 1.23 1.23 1.26 1.32 1.28 1.19 1.15 1.16 1.18 1.21 1.22 1.27 1.27 1.25 1.25 1.25 1.26 1.34 1.44 1.51 1.51 1.50 1.48 1.45 1.42 1.36 1.32 1.32 1.31 1.32 1.28 1.24 1.18 1.06 1.04 1.06 1.03 1.00
1.30 1.26 1.23 1.25 1.27 1.25 1.27 1.30 1.26 1.21 1.18 1.15 1.16 1.21 1.23 1.24 1.23 1.22 1.26 1.26 1.29 1.36 1.44 1.49 1.49 1.47 1.45 1.41 1.37 1.32 1.31 1.30 1.30 1.29 1.23 1.21 1.17 1.05 1.00 1.02 0.98 0.94
1.29 1.27 1.26 1.28 1.29 1.29 1.28 1.25 1.21 1.20 1.17 1.16 1.18 1.20 1.18 1.18 1.18 1.21 1.22 1.25 1.31 1.36 1.41 1.44 1.46 1.44 1.43 1.39 1.37 1.32 1.31 1.26 1.26 1.24 1.17 1.13 1.09 1.01 1.01 1.00 0.92 0.86
1.31 1.29 1.27 1.27 1.29 1.28 1.24 1.22 1.22 1.20 1.17 1.15 1.16 1.18 1.17 1.17 1.16 1.17 1.21 1.25 1.31 1.37 1.40 1.41 1.40 1.42 1.43 1.37 1.33 1.27 1.25 1.22 1.22 1.18 1.12 1.06 1.02 1.00 0.98 0.93 0.86 0.80
1.26 1.27 1.26 1.29 1.29 1.28 1.25 1.24 1.24 1.22 1.19 1.16 1.17 1.14 1.15 1.14 1.16 1.15 1.19 1.24 1.30 1.36 1.36 1.37 1.36 1.36 1.36 1.33 1.27 1.24 1.24 1.22 1.19 1.14 1.07 1.03 1.00 0.96 0.92 0.85 0.80 0.75
1.27 1.29 1.28 1.29 1.27 1.27 1.24 1.23 1.23 1.20 1.18 1.16 1.12 1.13 1.13 1.14 1.15 1.16 1.17 1.23 1.27 1.32 1.35 1.35 1.35 1.35 1.33 1.30 1.25 1.23 1.21 1.19 1.15 1.11 1.08 1.03 0.98 0.92 0.85 0.80 0.74 0.69
1.29 1.27 1.26 1.26 1.25 1.25 1.23 1.23 1.22 1.21 1.19 1.13 1.10 1.11 1.13 1.16 1.16 1.15 1.15 1.22 1.29 1.32 1.32 1.31 1.31 1.31 1.31 1.28 1.23 1.20 1.17 1.15 1.13 1.09 1.06 1.00 0.93 0.86 0.80 0.75 0.70 0.69
1.28 1.26 1.25 1.24 1.23 1.23 1.21 1.21 1.22 1.20 1.18 1.14 1.11 1.10 1.10 1.16 1.18 1.15 1.14 1.20 1.25 1.30 1.30 1.28 1.29 1.29 1.28 1.25 1.21 1.18 1.15 1.13 1.11 1.06 1.02 0.97 0.87 0.81 0.76 0.73 0.69 0.68
1.26 1.24 1.20 1.21 1.21 1.21 1.19 1.20 1.19 1.18 1.16 1.12 1.11 1.10 1.12 1.14 1.15 1.15 1.14 1.18 1.22 1.26 1.27 1.26 1.26 1.25 1.24 1.22 1.18 1.17 1.15 1.12 1.07 1.02 0.97 0.89 0.83 0.80 0.76 0.72 0.72 0.71
1.24 1.21 1.18 1.18 1.21 1.20 1.18 1.18 1.18 1.16 1.14 1.13 1.12 1.10 1.12 1.14 1.12 1.12 1.13 1.18 1.24 1.28 1.28 1.26 1.24 1.23 1.23 1.19 1.15 1.15 1.14 1.09 1.04 0.98 0.92 0.86 0.83 0.80 0.75 0.74 0.73 0.74
1.22 1.18 1.18 1.18 1.21 1.20 1.18 1.17 1.16 1.16 1.14 1.12 1.13 1.13 1.11 1.11 1.12 1.12 1.14 1.19 1.24 1.28 1.26 1.25 1.22 1.22 1.21 1.17 1.13 1.13 1.10 1.05 1.00 0.95 0.90 0.86 0.83 0.78 0.76 0.76 0.77 0.77
1.20 1.19 1.20 1.20 1.23 1.22 1.18 1.17 1.17 1.16 1.14 1.15 1.15 1.12 1.11 1.11 1.11 1.11 1.15 1.21 1.24 1.26 1.25 1.24 1.22 1.21 1.18 1.15 1.12 1.11 1.08 1.02 0.97 0.92 0.88 0.85 0.81 0.80 0.81 0.82 0.81 0.79
1.19 1.23 1.24 1.22 1.20 1.19 1.17 1.16 1.16 1.16 1.16 1.15 1.14 1.14 1.14 1.14 1.14 1.14 1.14 1.18 1.21 1.22 1.21 1.22 1.20 1.20 1.16 1.14 1.10 1.09 1.06 1.00 0.95 0.91 0.88 0.84 0.81 0.81 0.83 0.83 0.81 0.79
1.21 1.23 1.21 1.19 1.16 1.14 1.15 1.17 1.17 1.16 1.15 1.14 1.13 1.15 1.15 1.14 1.13 1.15 1.15 1.16 1.15 1.18 1.18 1.19 1.20 1.20 1.16 1.14 1.11 1.09 1.06 0.99 0.96 0.92 0.89 0.85 0.81 0.80 0.81 0.81 0.80 0.80
1.22 1.21 1.20 1.15 1.13 1.14 1.16 1.17 1.17 1.16 1.15 1.14 1.14 1.15 1.14 1.13 1.12 1.12 1.14 1.15 1.14 1.14 1.14 1.16 1.19 1.18 1.15 1.13 1.11 1.09 1.05 0.99 0.95 0.91 0.90 0.87 0.83 0.82 0.80 0.81 0.81 0.80
1.18 1.17 1.14 1.12 1.12 1.12 1.14 1.18 1.19 1.17 1.14 1.14 1.14 1.13 1.13 1.12 1.10 1.12 1.14 1.13 1.13 1.13 1.13 1.15 1.17 1.17 1.16 1.12 1.09 1.07 1.02 0.99 0.95 0.91 0.89 0.88 0.86 0.84 0.83 0.81 0.80 0.78
1.11 1.11 1.11 1.10 1.10 1.12 1.15 1.18 1.19 1.17 1.14 1.13 1.12 1.14 1.14 1.10 1.10 1.12 1.12 1.12 1.12 1.09 1.10 1.14 1.17 1.17 1.15 1.11 1.08 1.04 1.00 0.98 0.94 0.92 0.89 0.89 0.88 0.85 0.83 0.82 0.80 0.77
1.04 1.02 1.03 1.07 1.11 1.14 1.15 1.17 1.17 1.15 1.16 1.17 1.18 1.17 1.14 1.12 1.11 1.11 1.11 1.10 1.10 1.09 1.10 1.14 1.16 1.17 1.15 1.11 1.07 1.01 0.98 0.96 0.94 0.92 0.90 0.88 0.88 0.86 0.85 0.84 0.81 0.76
0.99 0.96 0.97 1.02 1.08 1.12 1.13 1.15 1.17 1.19 1.20 1.19 1.18 1.16 1.14 1.11 1.10 1.09 1.09 1.09 1.10 1.09 1.09 1.11 1.15 1.18 1.15 1.11 1.06 1.00 0.98 0.93 0.95 0.93 0.90 0.89 0.88 0.88 0.87 0.85 0.81 0.77
0.95 0.93 0.97 1.01 1.05 1.09 1.11 1.13 1.17 1.20 1.19 1.20 1.20 1.21 1.22 1.19 1.15 1.13 1.09 1.08 1.10 1.09 1.08 1.09 1.15 1.17 1.15 1.11 1.05 1.01 0.97 0.92 0.96 0.92 0.88 0.88 0.88 0.89 0.87 0.85 0.83 0.79
0.97 0.97 0.98 1.00 1.03 1.05 1.07 1.12 1.17 1.21 1.23 1.25 1.21 1.20 1.18 1.15 1.11 1.11 1.10 1.08 1.09 1.09 1.08 1.09 1.12 1.16 1.15 1.11 1.05 1.01 0.96 0.91 0.94 0.90 0.89 0.89 0.88 0.89 0.87 0.86 0.84 0.82
1.00 0.99 0.96 0.96 1.00 1.03 1.07 1.13 1.21 1.25 1.25 1.25 1.21 1.20 1.18 1.16 1.14 1.13 1.12 1.12 1.10 1.10 1.10 1.07 1.10 1.15 1.14 1.09 1.05 1.02 0.97 0.93 0.94 0.88 0.89 0.89 0.89 0.89 0.86 0.86 0.84 0.84
0.98 0.97 0.95 0.94 0.98 1.03 1.08 1.13 1.20 1.22 1.25 1.26 1.27 1.27 1.24 1.22 1.18 1.14 1.11 1.11 1.12 1.12 1.11 1.08 1.10 1.13 1.11 1.09 1.06 1.02 0.98 0.96 0.94 0.88 0.88 0.88 0.87 0.86 0.86 0.85 0.88 0.84
0.98 0.95 0.94 0.94 0.98 1.05 1.12 1.16 1.22 1.24 1.24 1.26 1.28 1.27 1.23 1.21 1.21 1.17 1.11 1.09 1.12 1.12 1.09 1.09 1.10 1.09 1.09 1.08 1.07 1.04 1.00 0.99 0.95 0.88 0.87 0.87 0.87 0.84 0.83 0.86 0.90 0.85